ECMWFFLT1_850_thetae_111.txt.gz
Theta_e
276 274 273 272 272 272 271 271 270 270 270 269 269 269 268 268 267 266 266 266 266 265 265 265 265 265 265 265 264 264 264 264 264 264 264 264 263 263 263 263 263 262 263 265 265 264 264 265 265 266 266 266 266 266 266 266 266 266 266 266 267 267 268
275 273 272 272 272 271 271 271 270 270 269 269 269 268 268 267 266 266 266 266 265 265 265 265 265 264 264 264 264 264 264 264 264 264 264 263 263 263 263 263 263 263 262 264 264 264 264 265 264 265 265 266 266 265 265 265 265 265 266 266 266 266 267
274 273 272 272 271 271 271 270 270 269 269 269 269 268 267 267 266 266 266 265 265 265 265 264 264 264 264 264 264 264 264 264 264 264 263 264 263 263 263 263 263 263 262 263 264 264 264 264 264 264 264 265 265 265 265 265 265 265 265 265 266 266 266
273 272 272 272 271 271 270 270 270 269 269 269 268 268 267 266 266 266 265 265 265 265 264 264 264 264 264 264 264 263 263 264 264 264 264 263 263 263 263 263 263 263 263 263 263 263 263 264 264 264 264 264 264 264 265 265 264 265 265 265 265 265 266
273 272 272 271 271 271 270 270 269 269 269 269 268 267 267 266 266 266 265 265 265 264 264 264 264 264 264 263 263 263 264 264 264 264 263 263 263 263 263 263 263 263 263 263 263 263 263 263 263 263 263 263 264 264 264 264 264 264 264 264 265 265 265
272 272 272 271 271 270 270 269 269 269 269 268 268 267 267 266 266 266 265 265 265 265 264 264 264 264 264 263 263 264 264 264 264 264 263 263 263 263 263 263 263 263 263 263 263 263 263 263 263 263 263 263 263 263 263 263 264 264 264 264 265 265 265
272 272 271 271 270 270 270 269 269 269 269 268 268 267 267 266 266 266 265 265 265 265 265 264 264 264 264 264 264 264 264 264 264 264 263 263 263 263 263 263 263 263 263 263 263 262 263 263 263 263 263 263 263 263 263 263 263 264 264 264 265 265 265
272 271 271 270 270 270 269 269 269 269 268 268 268 267 267 266 266 266 265 265 265 265 265 265 265 264 264 265 264 264 264 264 264 264 263 263 263 263 263 263 263 263 263 263 262 262 263 263 263 263 263 263 263 263 263 263 263 263 264 264 265 265 265
271 271 270 270 269 269 269 269 269 268 268 268 267 267 267 266 266 266 266 265 265 265 265 265 265 265 265 265 265 265 264 264 264 264 263 263 263 263 263 263 263 263 263 263 262 262 263 263 263 263 263 263 262 263 263 263 263 263 263 264 264 264 265
271 270 270 270 269 269 269 268 269 268 268 267 267 267 266 266 266 266 266 266 266 266 266 266 265 265 265 265 265 265 265 264 264 264 264 263 263 263 263 263 263 263 263 263 262 262 263 262 263 263 263 263 262 262 262 262 262 263 263 263 263 264 265
270 270 270 269 269 269 268 269 268 268 268 267 267 266 266 266 266 266 266 266 265 265 265 265 265 265 265 265 264 264 264 264 264 264 263 263 263 263 263 263 263 263 263 262 262 262 262 262 263 263 263 262 262 262 262 262 263 263 263 263 263 263 264
270 270 269 269 269 268 268 268 268 268 267 267 267 266 266 266 266 266 265 265 265 264 264 264 264 264 264 264 264 264 264 263 263 263 263 263 262 262 262 262 262 263 263 263 262 262 262 262 262 262 262 262 262 262 262 262 263 263 263 263 263 263 264
270 269 269 269 269 268 268 268 268 268 267 267 267 267 266 266 266 266 266 265 265 264 264 264 264 263 263 264 263 263 263 263 263 262 262 262 262 262 262 262 263 263 263 263 262 262 262 262 262 262 262 262 262 262 262 262 263 263 263 263 263 264 264
269 269 269 269 268 268 268 268 268 268 268 267 267 267 267 267 266 266 266 266 265 265 264 264 264 263 263 263 263 263 263 262 262 262 262 262 262 262 262 263 263 263 263 263 263 262 262 262 262 262 262 262 262 262 262 263 263 263 263 263 263 264 264
269 269 269 269 268 268 268 268 268 268 268 267 267 267 267 267 266 266 265 265 265 264 264 264 264 263 263 263 263 263 263 262 262 262 262 262 262 262 263 263 263 263 263 263 263 263 263 262 262 262 262 263 263 263 263 263 264 264 264 263 263 263 263
269 269 269 268 268 268 268 268 268 268 267 267 267 266 266 266 266 266 266 265 265 265 265 264 264 263 263 262 262 262 262 262 262 262 262 262 262 263 263 263 263 263 263 263 263 263 263 263 263 263 263 264 264 264 264 264 264 264 263 263 263 263 263
269 268 268 268 268 268 268 268 268 267 267 267 267 266 266 265 265 265 265 264 264 264 264 264 263 263 262 262 262 262 263 262 262 261 261 262 263 263 263 263 263 263 263 263 263 263 264 264 264 264 264 265 265 264 264 264 263 263 263 262 262 262 262
268 268 268 268 268 268 268 268 268 267 267 267 266 266 265 265 265 264 264 263 263 263 263 263 263 262 262 262 262 262 262 263 262 262 262 262 262 262 263 263 263 264 263 263 264 264 264 264 264 264 264 264 264 264 264 264 263 263 263 262 262 262 262
268 268 268 268 268 268 268 268 267 267 267 267 266 266 265 265 265 264 264 263 263 263 263 263 263 263 262 262 262 263 263 263 263 263 263 263 263 262 263 263 263 263 263 263 263 263 263 263 264 264 264 264 264 263 263 263 263 263 262 262 262 262 262
268 268 268 268 268 268 267 267 267 267 267 266 266 266 265 265 264 264 263 262 262 262 262 263 263 263 263 262 262 263 263 264 264 264 264 264 263 263 263 264 263 263 263 263 263 263 263 263 263 263 263 263 263 263 263 263 263 262 262 262 262 262 262
268 268 268 268 268 268 267 267 267 267 267 266 266 266 265 264 264 264 263 262 262 262 262 263 263 263 263 262 262 263 263 264 264 264 264 264 264 264 264 264 263 263 263 263 262 262 262 262 262 262 262 262 262 262 262 262 262 262 262 262 262 262 262
268 268 268 268 268 267 267 267 267 267 266 266 266 266 266 265 264 264 263 262 262 262 262 262 262 262 262 262 262 263 264 264 264 264 264 264 264 264 264 263 263 263 263 262 262 262 262 262 262 262 261 261 261 261 261 261 261 262 262 261 261 261 261
268 268 268 268 268 268 267 267 266 266 266 266 266 266 265 265 264 263 262 262 262 262 262 262 262 262 262 262 262 263 264 264 264 264 264 264 264 263 263 263 263 263 262 262 262 262 261 261 261 262 261 261 261 261 261 261 261 261 261 261 261 261 261
268 267 268 268 268 268 267 267 266 266 266 266 266 266 265 264 264 263 262 262 262 262 262 262 262 262 262 263 263 263 263 264 264 263 263 263 263 263 263 263 262 262 262 262 262 262 262 261 261 261 261 261 261 261 261 261 261 261 261 261 261 261 261
268 267 267 268 268 268 267 266 266 266 266 266 265 265 264 263 263 263 263 262 262 262 262 262 262 262 263 263 263 263 263 263 263 263 263 263 263 263 263 262 262 262 262 262 261 261 261 261 261 261 261 260 260 260 260 260 260 260 261 260 260 260 261
267 267 267 267 267 267 267 266 266 266 266 265 265 264 263 263 262 263 263 262 262 262 262 262 262 262 262 262 262 262 262 262 262 262 262 262 262 262 262 262 262 261 261 261 261 260 260 260 260 260 260 260 260 260 260 260 259 260 260 260 259 260 261
267 267 267 267 267 267 266 266 266 266 265 265 264 264 264 263 263 263 263 263 263 263 263 263 262 262 262 262 262 262 262 262 262 262 262 262 262 261 261 261 261 260 260 260 260 259 259 259 259 259 259 259 259 259 259 259 259 259 259 259 259 259 260
267 267 267 266 266 266 266 266 266 265 265 265 265 264 264 264 263 264 264 263 263 263 263 263 262 262 262 262 262 262 262 262 262 261 261 261 261 261 260 260 260 259 259 259 259 258 258 258 258 258 259 258 258 259 259 258 258 258 259 259 258 259 260
266 266 266 266 266 266 266 265 265 265 264 264 264 264 264 264 264 264 264 264 263 263 263 262 262 262 262 262 262 262 261 261 261 261 261 260 260 260 260 259 259 259 258 258 258 257 258 258 258 258 258 258 257 258 258 258 258 258 258 258 258 258 259
266 266 266 266 266 266 265 264 264 263 262 263 264 264 264 264 264 264 264 263 263 262 262 262 262 262 261 261 261 261 261 261 261 260 260 260 259 259 259 258 258 258 257 257 257 257 257 257 257 258 257 257 257 257 257 257 257 258 258 258 258 259 259
266 265 265 265 264 264 263 263 263 262 262 262 264 264 264 264 264 264 264 263 262 262 262 262 261 261 261 261 261 261 260 260 260 259 259 259 258 258 258 257 257 257 256 256 256 256 257 256 256 256 256 256 256 256 257 257 257 257 258 258 258 258 259
265 265 265 264 264 263 263 263 263 262 262 263 264 264 264 264 264 264 264 263 262 262 262 262 261 261 261 260 260 260 259 259 259 258 258 258 257 257 257 257 256 256 256 256 256 256 256 255 255 255 255 255 255 256 256 256 257 257 257 258 258 258 258
265 265 265 264 264 264 264 264 263 263 263 263 263 263 263 263 263 263 263 262 262 261 261 261 260 260 260 259 259 259 258 258 258 257 257 257 257 257 256 256 256 255 255 255 255 255 255 254 254 254 254 254 254 255 255 256 256 257 257 257 258 258 258
265 265 264 264 264 264 264 264 263 263 263 263 262 262 262 262 262 262 261 261 260 260 260 259 259 259 259 258 258 258 257 257 257 257 257 256 256 256 256 255 255 254 254 254 254 254 254 253 253 253 253 253 254 254 254 255 256 256 257 257 257 258 258
266 265 264 264 264 264 263 263 263 263 263 263 263 262 262 261 260 260 260 260 259 259 259 259 259 258 258 258 257 257 257 257 256 256 256 255 255 255 255 254 254 253 253 253 253 253 253 253 252 252 252 252 253 253 254 255 255 256 256 256 257 257 258
265 265 264 264 264 263 263 262 262 262 262 262 262 261 260 259 259 259 259 259 259 259 258 258 258 258 257 257 257 256 256 256 256 255 255 255 255 254 254 253 253 253 252 252 252 252 252 251 251 252 252 252 252 253 254 254 255 256 256 256 256 257 257

ECMWFFLT1_850_thetae_114.txt.gz
Theta_e
283 283 282 281 280 279 278 278 277 276 274 273 272 272 271 271 270 269 269 269 268 268 268 268 268 268 267 267 266 266 265 265 265 265 264 264 264 264 264 264 265 265 265 265 265 265 265 265 265 265 265 265 265 265 265 265 265 265 266 267 268 268 269
283 282 281 280 279 278 278 278 277 275 274 273 272 272 271 270 270 269 269 268 268 268 267 267 267 267 267 266 266 266 265 265 265 264 264 264 264 264 264 264 264 265 265 265 265 265 265 265 265 265 265 265 265 265 265 264 264 264 265 266 267 268 268
282 282 280 279 279 278 278 277 276 275 273 272 272 271 271 270 269 269 269 268 268 268 267 267 266 266 266 266 265 265 265 265 264 264 264 264 264 264 264 264 264 264 264 264 264 264 264 265 265 265 265 265 265 265 264 264 264 264 265 265 266 267 267
282 281 280 279 278 278 277 277 275 274 273 272 271 271 270 270 269 269 268 268 268 267 267 267 266 266 266 266 265 265 265 265 264 264 264 264 264 263 263 264 264 264 264 264 264 264 264 264 264 265 265 264 264 264 264 264 264 264 264 264 264 265 267
281 280 279 279 278 277 277 276 275 273 272 272 271 270 270 269 269 269 268 268 268 267 267 267 266 266 266 265 265 265 264 264 264 264 264 263 263 263 263 263 263 263 263 263 263 263 264 264 264 264 264 264 264 264 264 264 264 264 264 264 264 264 266
281 280 279 278 278 277 277 275 273 272 272 271 271 270 270 269 269 269 268 268 268 267 267 267 266 266 266 265 265 265 264 264 264 264 264 263 263 263 263 262 263 263 263 263 263 263 263 263 264 264 264 264 264 264 264 264 264 264 264 264 264 264 265
280 280 279 278 277 277 276 274 273 272 271 271 270 270 269 269 269 268 268 268 267 267 267 267 266 266 266 266 265 265 265 265 264 264 264 264 263 263 263 263 263 262 262 262 263 263 263 263 263 263 264 264 264 264 264 264 264 264 264 264 264 264 264
280 279 278 277 277 276 275 273 272 272 271 271 270 270 269 269 268 268 267 267 267 267 267 267 266 266 266 266 265 265 265 265 265 264 264 264 264 264 264 263 263 263 263 262 262 263 263 263 263 263 263 263 264 264 264 264 264 264 264 264 264 264 264
279 278 277 277 276 275 274 273 272 272 271 270 270 269 269 268 268 267 267 267 267 267 267 267 266 266 266 266 266 266 265 265 265 265 264 264 264 264 264 264 263 263 263 263 262 262 263 263 263 263 263 263 264 264 264 264 264 264 264 264 264 264 264
278 277 277 276 275 274 273 272 272 271 270 270 269 269 268 268 268 267 267 267 267 267 267 267 267 267 267 266 266 266 266 265 265 265 265 265 264 264 264 264 263 263 263 263 262 262 262 262 263 263 263 263 263 263 263 263 263 263 263 264 264 264 264
277 277 276 276 274 273 272 272 271 271 270 269 268 268 268 268 268 267 267 268 268 268 267 267 267 267 267 266 266 266 266 266 265 265 265 265 264 264 264 264 263 263 263 263 262 262 262 262 263 263 263 263 263 263 263 263 263 263 263 263 264 264 264
277 276 276 274 273 272 272 271 271 270 269 269 268 268 267 267 267 267 267 267 267 267 267 266 266 266 266 266 266 266 265 265 265 265 264 264 264 264 263 263 263 263 263 263 263 263 263 263 263 263 263 263 263 263 263 263 263 263 263 263 264 264 264
276 276 274 273 272 272 271 271 270 270 269 268 268 267 267 266 266 266 266 267 267 267 266 266 266 266 265 266 266 265 265 265 265 265 264 264 263 263 263 263 264 264 264 264 263 263 263 263 263 263 263 263 263 263 262 262 263 263 263 263 263 264 264
275 274 273 272 271 271 270 270 270 269 268 268 267 267 266 266 266 266 266 266 266 266 266 266 266 265 265 265 265 265 265 265 265 264 264 263 263 263 263 262 263 263 263 263 263 263 263 263 263 262 263 263 262 262 262 262 263 263 263 263 263 263 263
274 273 272 271 271 270 270 270 269 269 268 268 267 267 266 266 266 266 266 266 266 266 266 265 265 265 265 265 264 264 264 265 265 264 263 263 263 263 262 262 262 262 262 263 263 263 263 263 263 263 263 263 263 263 263 263 263 263 263 263 263 263 263
272 272 271 271 270 270 269 269 269 268 268 267 267 267 266 266 266 266 266 266 266 266 266 266 265 265 265 265 265 264 264 264 264 264 264 263 263 263 262 262 263 263 263 263 263 263 263 263 263 263 263 263 263 264 264 264 264 263 263 263 263 263 263
272 271 270 270 270 269 269 269 269 268 268 267 267 267 266 266 266 266 266 266 266 266 266 266 266 266 266 265 265 265 265 264 264 264 263 263 263 262 262 262 263 264 264 264 264 264 264 264 264 264 264 265 265 265 265 264 264 264 263 263 263 263 263
271 270 270 270 270 269 269 269 269 268 267 267 267 267 266 266 266 266 266 266 266 266 265 265 266 266 265 266 266 265 265 265 264 264 263 263 262 262 262 263 264 264 264 264 264 264 264 264 264 264 265 265 265 265 264 264 264 264 263 263 263 263 263
270 270 270 270 269 269 269 269 269 268 267 267 267 267 266 266 265 266 266 266 266 266 265 265 265 266 266 266 266 265 265 265 265 264 264 263 263 262 262 263 264 264 264 264 264 264 264 264 264 264 264 264 264 264 264 264 264 263 263 263 263 262 262
270 269 269 269 269 269 268 268 268 268 267 267 267 267 266 266 265 266 266 266 266 265 264 264 265 265 266 266 265 265 265 266 265 265 265 264 264 263 263 264 264 264 264 264 264 264 264 264 264 264 263 264 264 264 264 263 263 263 263 263 262 262 262
269 269 269 269 269 269 268 268 268 268 267 267 267 267 266 266 266 266 266 266 265 265 264 263 264 264 265 265 265 264 265 266 266 265 265 265 264 264 265 265 265 265 264 264 264 264 264 263 263 263 263 263 263 263 263 263 263 263 263 262 262 262 261
269 269 269 269 269 269 268 268 268 268 267 267 267 267 266 266 266 266 265 265 265 264 263 263 264 264 264 265 265 264 265 265 266 265 265 265 265 265 265 265 265 264 264 264 263 263 263 263 263 263 263 263 263 262 262 262 262 262 262 262 261 261 261
268 268 268 268 268 268 268 268 268 268 267 267 267 267 266 266 266 266 265 264 264 263 263 263 263 263 263 263 264 265 265 265 265 265 265 265 265 265 265 265 264 264 263 263 263 263 263 262 262 262 262 262 262 262 261 261 261 261 261 261 261 261 261
268 268 268 268 268 268 268 268 268 268 267 267 266 266 266 266 266 266 265 264 263 263 263 263 263 263 263 263 264 265 265 265 265 265 265 265 265 264 264 264 264 263 263 262 262 262 262 262 261 261 261 261 261 261 261 261 261 261 261 261 261 260 260
268 267 268 268 268 268 268 268 268 268 267 266 266 266 266 266 266 266 265 264 263 263 263 263 263 263 264 264 264 265 264 264 264 264 265 264 264 263 263 263 263 263 262 262 262 261 261 261 261 261 261 261 261 261 261 261 261 261 261 261 261 261 261
267 267 267 267 267 268 268 268 267 267 267 266 266 266 266 266 265 265 265 264 264 263 263 263 263 263 263 263 263 263 263 263 263 264 264 264 264 263 263 263 263 262 262 262 262 261 261 261 261 261 261 261 261 261 260 260 260 260 260 260 260 260 260
267 267 267 267 267 267 267 267 267 267 267 266 266 265 265 265 265 265 265 264 264 264 264 264 263 263 263 263 263 263 263 262 263 263 263 263 263 263 263 263 262 262 262 262 261 261 261 261 261 260 260 260 260 260 260 259 259 259 259 259 259 259 259
267 267 267 267 266 266 266 267 267 267 267 266 265 265 265 265 265 265 265 265 264 264 264 264 264 263 263 263 263 263 263 262 263 262 263 263 262 262 262 262 262 262 261 261 261 261 261 261 260 260 260 259 259 259 259 259 258 258 258 258 258 257 258
267 267 266 266 266 266 266 266 267 267 266 266 265 265 265 265 266 265 265 265 265 264 264 264 263 263 263 263 263 263 263 263 262 262 262 262 262 262 262 262 262 261 261 261 261 261 260 260 260 259 259 258 258 258 258 257 257 257 257 257 256 257 257
266 266 266 266 266 266 266 266 266 266 265 265 264 264 265 266 266 265 265 265 265 264 264 264 263 263 263 263 263 263 262 262 262 262 262 262 262 262 262 261 261 261 260 260 260 260 259 259 258 258 258 257 257 257 257 256 256 256 256 256 255 256 257
266 266 265 265 265 265 265 265 265 265 264 264 264 264 265 266 265 265 265 265 264 264 263 263 263 263 262 262 262 262 262 262 262 261 261 261 261 261 261 260 260 260 259 259 259 258 258 257 257 257 257 257 256 256 255 255 255 255 254 254 255 255 256
266 265 265 264 265 265 265 264 264 264 264 264 264 265 265 265 265 265 265 265 264 264 263 263 262 262 262 262 262 262 261 261 261 260 260 260 260 260 259 259 259 258 258 258 257 257 257 256 256 256 256 256 255 255 254 254 254 253 253 254 254 255 256
265 265 264 264 264 265 265 264 264 264 264 264 264 264 264 264 264 264 264 264 264 263 263 263 262 262 262 261 261 261 261 261 260 260 259 259 259 259 258 258 258 257 257 257 256 256 256 256 255 255 255 255 254 254 253 253 253 253 253 253 254 255 255
266 265 265 264 264 264 264 264 264 264 264 263 263 263 263 263 263 263 263 262 262 262 262 261 261 261 261 261 261 260 260 260 259 259 259 259 258 258 257 257 257 256 256 256 255 255 255 255 254 254 254 253 253 253 253 253 253 253 252 252 253 254 254
266 266 265 265 264 264 264 263 263 263 263 263 263 263 262 262 262 262 262 262 261 261 261 261 261 261 261 261 260 260 259 259 259 258 258 258 257 257 257 256 256 255 255 255 255 255 254 254 253 253 253 252 252 252 252 252 252 251 251 252 252 253 254
265 265 265 265 264 264 264 263 263 263 263 263 262 262 261 260 260 261 261 261 261 261 261 260 260 260 260 260 260 259 259 258 258 258 257 257 257 256 256 256 255 255 254 254 254 254 253 253 253 252 252 251 251 251 251 251 251 251 252 252 252 253 253

ECMWFFLT1_850_thetae_117.txt.gz
Theta_e
285 285 285 284 284 283 283 283 282 282 281 280 279 278 278 277 276 275 274 273 272 272 271 271 270 270 270 270 269 269 269 268 268 268 268 267 267 267 267 267 267 267 267 267 267 267 267 267 267 267 267 267 267 267 267 267 268 267 267 267 267 267 267
285 284 284 284 283 283 283 283 282 281 281 280 278 278 278 277 276 275 274 273 272 272 271 270 270 270 269 269 269 269 269 268 268 268 267 267 267 267 267 267 267 267 267 266 266 267 267 267 267 267 267 267 267 267 267 267 267 267 267 267 267 267 266
284 284 283 283 283 282 282 282 281 281 280 279 278 278 277 277 276 275 273 273 272 272 271 270 270 269 269 269 269 268 268 268 268 268 267 267 267 266 266 267 266 266 266 266 266 266 266 266 266 266 266 266 266 267 267 267 266 266 266 266 266 266 266
284 283 283 282 282 282 281 281 281 281 280 279 278 278 278 277 275 274 273 272 272 271 271 270 269 269 269 268 268 268 268 268 268 267 267 266 266 266 266 266 266 266 266 266 266 266 266 266 266 266 266 266 266 266 266 266 266 266 266 266 266 266 266
283 283 282 282 281 281 281 281 280 280 279 278 278 278 277 276 275 274 273 272 272 271 271 270 269 269 269 268 268 268 267 267 267 267 266 266 266 266 265 265 265 265 265 265 265 265 265 265 265 265 265 265 266 266 266 266 266 266 266 266 266 266 266
283 283 282 281 281 281 281 280 280 279 278 278 277 277 277 276 274 273 272 272 272 271 270 270 269 269 268 268 268 267 267 267 267 267 266 266 266 265 265 265 265 265 265 265 265 265 265 265 265 265 265 265 265 265 265 265 265 265 266 265 265 265 265
283 282 282 281 280 280 280 280 279 278 278 277 277 277 276 275 274 273 272 272 271 271 270 270 269 269 268 268 268 267 267 267 267 266 266 265 265 265 265 264 264 264 264 264 264 264 264 264 265 265 265 265 265 265 265 265 265 265 265 265 265 265 265
283 282 281 281 280 280 279 279 278 278 278 277 277 277 276 274 273 272 272 271 271 270 270 269 269 268 268 268 268 267 267 267 267 266 266 265 265 264 264 264 264 264 264 263 263 263 264 264 264 264 264 265 265 265 265 265 265 265 265 265 265 265 265
283 282 281 281 280 280 279 278 278 278 278 278 277 276 275 274 273 272 271 271 270 269 269 269 269 268 268 268 267 267 267 267 266 266 265 265 265 264 264 264 264 264 264 263 263 263 263 263 264 264 264 264 264 265 265 265 265 265 265 265 265 265 265
282 282 281 280 280 280 279 278 278 278 278 277 276 275 273 272 272 271 270 270 269 269 269 269 268 268 268 267 267 267 267 267 266 266 266 266 266 265 264 264 264 264 263 263 263 263 263 263 263 264 264 264 264 264 265 265 265 265 265 265 265 265 265
283 282 281 280 280 279 278 278 278 278 277 276 275 273 272 272 271 271 270 269 269 269 269 268 268 268 268 267 267 267 267 267 267 266 266 266 266 266 265 265 264 264 263 263 263 263 263 263 263 263 264 264 264 264 264 264 265 265 265 265 265 265 265
282 281 281 280 279 278 278 278 278 277 276 274 273 272 272 271 271 270 270 269 269 269 268 268 268 268 268 268 268 267 267 267 267 267 267 266 266 266 265 265 265 265 264 264 264 264 263 263 263 263 263 263 264 264 264 264 264 264 264 264 264 264 264
281 281 280 279 278 278 278 277 277 276 275 273 272 271 271 270 270 269 269 269 269 269 268 268 268 268 268 268 268 267 267 267 267 267 267 267 266 266 265 265 265 266 265 265 264 264 264 264 263 263 263 263 263 263 264 264 264 264 264 264 264 264 264
280 280 279 279 278 277 277 276 276 275 273 272 271 270 270 269 269 268 268 268 268 268 268 268 267 267 267 267 267 267 267 267 267 266 266 266 266 265 265 265 265 265 265 264 264 264 264 264 263 263 263 263 263 263 263 263 263 263 263 263 264 264 264
279 279 278 278 277 276 276 276 275 274 272 271 270 270 269 269 268 268 268 267 267 267 267 267 267 266 266 266 266 266 267 267 266 266 266 266 266 266 265 264 264 264 264 264 264 264 264 263 263 263 263 263 263 263 263 263 263 264 263 263 263 263 263
278 278 277 276 276 275 275 274 273 273 272 271 270 269 269 268 268 268 267 267 267 267 267 266 266 266 266 266 266 266 266 266 266 266 266 266 266 266 265 265 265 264 264 264 264 264 264 264 264 264 264 264 264 264 264 264 264 264 263 263 263 263 263
277 276 276 275 275 274 274 273 272 272 271 270 269 269 268 268 267 267 266 266 267 267 267 266 266 266 266 266 266 266 266 266 266 266 266 266 266 265 265 265 265 265 265 266 265 265 265 265 265 265 266 266 266 265 265 265 264 264 263 263 263 263 263
275 275 275 274 274 273 273 272 272 271 270 269 269 268 268 267 267 266 266 266 266 267 266 267 267 267 267 267 267 267 267 267 267 266 265 265 265 264 264 264 265 265 265 265 265 265 265 265 265 266 266 266 266 266 265 265 264 264 264 264 264 264 264
274 274 273 273 273 272 272 271 271 270 270 269 268 268 267 267 266 266 266 266 266 266 266 267 267 267 267 267 267 267 267 267 267 266 265 265 265 264 264 264 265 265 265 265 265 265 265 265 265 265 265 265 265 265 265 265 264 264 264 264 264 264 264
273 273 272 272 272 271 271 270 270 270 269 269 268 267 267 266 266 266 266 266 266 266 266 267 267 267 267 267 267 267 267 268 268 267 267 266 265 265 265 265 265 265 265 265 265 265 265 265 265 265 264 264 265 265 265 264 264 264 264 264 264 263 263
272 272 271 271 271 270 270 270 270 269 269 268 268 267 266 266 266 266 266 266 266 266 267 267 267 267 267 267 267 266 267 268 268 268 267 267 266 266 266 266 265 265 265 266 265 265 265 265 265 265 264 264 264 264 264 264 264 264 264 264 264 263 263
271 271 270 270 270 270 270 270 269 269 269 268 268 267 266 266 266 266 266 266 266 266 267 267 266 266 267 267 266 266 267 268 268 268 267 267 266 267 266 266 266 266 266 265 265 264 264 264 264 264 264 264 264 264 264 264 264 264 264 264 264 263 263
270 270 270 269 269 269 269 269 269 269 268 268 267 267 266 266 266 266 266 266 266 266 266 266 266 266 266 266 266 266 267 267 268 267 267 267 267 267 267 267 266 266 266 265 264 264 264 264 263 263 263 263 264 264 264 263 263 263 263 263 263 263 263
270 269 269 269 269 269 269 269 269 269 268 268 267 267 266 266 266 267 266 266 266 266 266 265 265 266 266 266 266 266 267 267 267 267 267 267 266 266 266 266 266 266 265 265 264 264 264 263 263 263 263 263 263 263 263 262 262 262 262 262 262 262 262
269 269 269 268 268 268 268 268 268 268 268 268 267 267 266 266 266 266 266 266 266 266 265 265 265 266 266 266 266 267 267 266 266 266 266 266 266 265 265 265 265 265 265 264 264 264 263 263 263 263 262 262 262 262 262 262 262 261 261 261 261 261 261
268 268 268 268 268 268 268 268 267 267 267 267 267 267 267 266 266 266 266 266 266 266 266 265 265 265 266 266 265 265 265 265 265 265 265 265 265 264 264 264 264 264 264 264 263 263 263 263 262 262 262 261 261 261 261 261 261 261 261 260 260 260 260
268 268 267 267 267 267 267 267 267 267 267 267 267 267 267 266 266 266 266 266 266 266 266 265 265 265 265 264 264 264 264 264 264 264 264 264 264 264 264 264 264 264 263 263 263 263 263 262 262 261 261 261 261 261 261 261 260 260 260 259 259 259 258
267 267 267 267 267 267 266 266 266 267 267 267 267 267 266 266 266 266 265 266 266 266 265 265 265 265 264 264 264 264 264 264 264 263 263 264 264 264 264 264 263 263 263 263 263 262 262 262 261 261 261 260 260 260 260 260 259 259 259 258 258 258 257
267 267 267 267 266 266 266 266 266 266 266 266 266 266 266 266 266 266 266 266 266 265 265 265 264 264 264 264 264 264 264 264 264 263 263 263 263 263 263 263 263 263 263 263 263 262 262 261 261 261 260 260 260 259 259 259 259 258 258 258 257 257 257
267 267 266 266 266 266 266 266 266 266 265 265 265 266 266 266 267 267 267 266 266 266 265 265 264 264 264 264 264 264 263 264 263 263 263 263 263 263 263 263 263 263 263 262 262 262 262 261 261 260 260 259 259 258 258 258 258 258 257 257 256 256 256
267 266 266 265 266 266 266 266 266 265 265 265 265 266 267 267 267 267 267 266 266 265 265 265 264 264 264 264 263 263 263 263 263 263 263 263 263 262 262 262 263 262 262 262 262 262 261 261 260 260 259 259 258 258 257 257 257 257 257 256 256 255 255
266 266 266 265 265 265 266 266 266 265 265 265 266 266 267 267 267 267 266 266 265 265 264 264 264 264 264 263 263 263 263 263 263 263 263 263 262 262 262 262 262 262 261 261 261 261 261 260 260 259 259 258 258 257 257 257 257 256 256 255 254 254 254
266 266 265 265 265 265 265 265 265 265 265 265 265 265 265 265 266 266 266 265 265 265 265 264 263 263 263 263 263 263 263 263 262 262 262 262 262 262 261 261 261 261 260 260 260 260 259 259 259 258 258 257 257 257 257 256 256 255 255 254 253 253 253
267 266 266 265 265 265 265 265 265 264 264 264 264 264 264 264 264 264 264 264 264 264 264 263 263 263 263 263 263 263 262 262 262 261 261 261 261 261 260 260 260 260 259 259 259 258 258 258 257 257 257 256 256 256 255 255 255 254 254 253 253 253 253
267 267 266 266 266 265 265 265 264 264 264 264 264 264 263 263 263 263 263 263 263 262 262 262 262 262 262 262 262 262 262 262 261 261 260 260 260 260 259 259 259 259 259 258 258 258 257 257 256 256 256 256 255 255 254 254 254 253 253 252 252 252 252
266 266 266 266 266 265 265 265 265 264 264 264 263 263 262 262 262 262 262 262 262 262 261 261 261 261 261 261 261 261 261 261 260 260 260 259 259 258 258 258 258 258 258 258 257 257 256 256 256 255 255 255 255 254 254 253 253 253 252 252 252 252 252

ECMWFFLT1_850_thetae_120.txt.gz
Theta_e
287 286 286 285 285 284 283 283 283 283 282 282 281 281 281 281 281 281 281 281 280 279 278 277 276 275 274 274 273 273 272 272 272 272 272 271 270 270 269 269 269 269 269 269 269 268 268 268 268 268 268 268 268 268 268 268 268 268 267 267 267 268 268
287 286 286 285 285 284 283 283 283 282 282 281 281 281 280 280 280 280 280 280 280 279 277 276 275 274 274 273 273 272 272 272 272 272 271 270 270 269 269 269 269 268 268 268 268 268 267 268 268 268 268 267 267 267 267 267 267 267 267 267 267 267 267
286 286 286 285 285 284 283 282 282 282 281 281 281 280 280 280 280 280 280 280 279 278 277 276 275 274 273 273 272 272 271 271 271 271 271 270 270 269 269 269 268 268 268 268 268 267 267 267 267 267 267 267 267 267 267 267 267 267 267 267 267 267 267
286 286 285 285 284 284 283 282 282 281 281 280 280 280 280 280 280 280 280 280 279 278 276 275 274 274 273 272 272 271 271 271 271 271 271 270 269 269 268 268 268 268 268 267 267 267 267 267 267 267 267 266 266 266 266 266 266 266 266 266 267 267 267
286 286 285 285 284 284 283 282 282 281 281 280 280 279 280 280 280 280 280 279 278 277 276 275 274 274 273 272 271 271 271 271 271 271 270 270 269 269 268 268 268 267 267 267 267 267 267 266 266 266 266 266 266 266 266 266 266 266 266 266 266 266 266
286 286 285 285 284 283 283 282 282 281 280 280 280 279 279 279 279 279 279 278 277 276 275 274 274 273 272 272 271 271 271 271 270 270 270 270 269 269 268 268 267 267 267 267 267 267 266 266 266 266 266 266 266 265 265 265 265 266 266 266 266 266 266
286 285 285 284 283 283 282 282 281 281 280 280 279 279 279 279 279 278 278 277 277 276 274 274 273 272 272 271 271 271 271 270 270 270 269 269 269 268 268 268 267 267 267 267 266 266 266 266 265 265 265 266 265 265 265 265 265 265 265 265 265 265 265
285 285 284 284 283 282 282 281 281 280 280 279 279 279 279 278 278 278 277 277 276 275 274 273 272 272 271 271 271 271 270 270 270 269 269 269 268 268 268 267 267 267 266 266 266 266 266 265 265 265 265 265 265 265 265 265 265 265 265 265 265 265 265
285 284 284 283 282 282 281 281 280 280 279 279 279 278 278 278 277 277 277 277 276 275 274 273 272 271 271 271 270 270 270 270 269 269 269 268 268 268 267 267 267 266 266 266 265 265 265 265 265 264 265 265 265 265 265 265 265 265 265 265 265 265 265
284 283 283 283 282 282 281 280 280 279 279 279 278 278 278 277 277 277 277 276 275 274 273 272 271 271 271 270 270 270 269 269 269 268 268 268 267 267 267 267 266 266 266 266 265 265 265 264 264 264 264 264 265 265 265 264 264 264 264 265 265 265 265
283 283 283 282 282 281 281 280 280 279 278 278 277 277 277 277 277 277 276 275 274 273 272 271 271 270 270 270 269 269 269 269 269 268 268 268 267 267 267 266 266 266 266 266 265 266 265 264 264 265 264 264 265 264 264 264 264 264 264 264 264 264 264
284 283 283 282 281 281 280 279 279 278 278 277 277 276 276 276 276 276 275 274 273 272 271 271 270 270 269 269 269 269 269 269 268 268 268 267 267 267 267 266 266 266 266 266 266 266 265 265 265 265 265 264 265 264 264 264 264 264 264 264 264 264 264
283 282 282 281 280 280 279 279 278 278 277 276 276 276 276 276 276 275 274 273 272 271 270 270 270 269 269 269 269 269 269 269 268 268 267 267 267 267 267 266 267 267 266 266 266 265 265 265 265 265 265 265 264 264 264 264 264 264 264 264 264 264 264
282 281 281 280 280 279 278 278 278 277 276 276 275 275 275 275 275 274 273 272 271 271 270 270 269 269 269 269 269 269 269 269 268 268 268 267 267 267 267 267 267 267 266 266 266 265 265 265 265 265 265 265 264 264 264 264 264 264 264 264 264 264 264
280 280 280 279 279 278 277 277 277 276 276 275 275 275 274 274 273 273 272 271 271 270 270 270 270 269 269 269 269 269 269 269 269 268 268 267 267 267 267 266 266 267 266 266 266 266 265 265 265 265 265 264 264 264 264 264 264 264 264 264 264 263 263
279 279 279 278 278 277 277 276 276 275 275 275 275 274 274 273 272 272 271 271 270 270 269 269 269 269 269 269 269 269 269 269 268 268 267 267 267 267 267 267 267 267 267 266 266 266 266 266 265 265 265 265 265 265 265 265 265 264 264 264 263 263 263
279 278 278 277 277 276 276 276 275 275 275 275 274 273 273 272 272 271 271 271 270 269 269 268 268 268 269 269 269 269 269 268 267 267 267 266 266 266 266 267 268 267 267 267 267 267 267 267 267 267 267 267 267 267 267 266 265 265 265 264 264 264 263
278 277 277 276 276 276 275 275 275 275 274 274 273 272 271 271 271 270 270 270 269 269 269 268 268 268 268 268 268 269 269 268 267 267 267 267 267 266 266 267 268 267 266 267 267 267 267 267 267 267 267 267 267 267 267 266 266 266 265 265 264 264 264
276 276 276 275 275 275 274 274 274 274 273 272 271 271 270 270 270 270 269 269 269 269 268 268 268 268 268 268 268 268 268 267 268 267 267 267 267 266 266 267 268 267 267 267 267 267 267 266 266 266 266 266 266 266 266 266 266 266 265 265 264 264 264
275 275 274 274 274 274 273 273 273 272 272 271 271 270 270 270 269 269 269 268 268 268 268 268 268 268 268 268 268 267 268 269 269 269 268 268 268 267 267 268 268 267 267 267 267 266 266 266 266 266 266 265 265 265 266 266 266 265 265 265 264 264 264
274 274 273 273 273 273 273 272 272 272 271 271 270 270 269 269 269 268 268 268 268 267 267 267 267 268 268 268 268 268 268 269 269 269 269 269 268 268 268 268 268 267 267 267 267 266 266 266 266 266 265 265 265 265 265 265 265 265 265 265 264 264 264
273 273 273 272 272 272 272 272 272 271 271 270 270 269 269 268 268 268 268 267 267 267 267 267 267 267 267 268 268 267 267 268 269 269 269 269 269 269 269 268 268 268 267 267 267 266 266 266 266 266 266 265 265 265 265 265 265 265 265 265 265 264 264
272 272 272 272 272 271 271 271 270 270 270 269 269 269 268 268 268 268 268 267 267 266 267 267 267 267 267 267 267 267 268 268 269 269 269 269 268 268 268 268 268 268 267 267 267 266 266 266 266 266 266 266 265 265 265 265 265 265 265 265 264 264 264
272 272 271 271 270 270 270 270 270 269 269 269 269 268 268 267 267 268 268 268 267 267 267 267 267 267 267 267 267 268 268 269 269 269 268 268 268 268 268 268 268 267 267 267 266 266 266 266 265 266 266 265 265 265 265 264 264 264 264 264 264 264 264
271 270 270 270 270 270 269 269 269 269 269 269 269 268 268 267 267 267 267 267 267 267 267 267 267 267 267 267 267 268 268 268 268 268 268 268 267 267 267 267 267 267 267 266 266 266 266 265 265 265 265 265 264 264 264 263 263 263 263 263 263 263 263
269 269 269 269 269 269 269 268 268 268 268 268 268 268 268 267 267 267 266 266 266 267 267 266 266 266 266 267 267 267 267 267 267 267 267 267 267 267 267 266 266 266 266 266 266 265 265 265 265 265 264 264 264 263 263 263 263 263 263 262 262 262 262
269 268 268 268 268 268 268 267 268 268 268 268 267 267 267 267 267 267 266 266 266 267 267 267 266 266 266 266 266 266 266 266 266 266 266 266 266 266 266 266 266 266 265 265 265 265 265 265 264 264 264 263 263 263 263 263 262 262 262 262 262 262 261
268 268 268 268 267 267 267 267 267 267 267 267 266 266 267 267 267 267 266 266 267 267 267 266 266 266 266 266 265 265 265 265 265 264 265 265 265 265 265 265 264 264 265 265 265 265 264 264 264 263 263 263 263 263 262 262 262 262 262 261 261 261 261
267 267 267 267 266 266 266 266 267 267 266 266 265 266 266 266 267 267 267 267 267 267 267 266 266 266 266 265 265 265 265 265 264 264 264 265 265 265 265 264 264 264 264 264 264 264 264 264 263 263 263 263 262 262 262 262 261 261 261 261 260 260 260
267 267 266 266 266 266 266 266 266 266 266 265 265 265 266 266 267 267 267 267 267 267 267 266 266 266 266 265 265 265 265 265 265 264 265 265 265 264 264 264 264 264 264 264 264 264 264 263 263 263 262 262 262 262 261 261 261 261 260 260 259 259 259
267 266 266 266 266 266 266 266 266 266 266 266 266 266 267 267 267 267 267 267 267 266 266 266 266 265 265 265 265 265 265 265 265 264 264 264 264 264 264 264 264 264 264 263 263 263 263 263 263 262 262 262 262 261 261 261 260 260 259 259 259 258 258
267 266 266 266 266 266 266 266 266 266 266 266 266 267 267 267 267 267 267 267 266 266 265 265 265 265 265 265 265 265 265 264 264 264 264 264 264 264 264 264 264 264 263 263 263 263 263 262 262 262 262 262 261 261 261 260 260 259 259 258 258 258 257
267 266 266 266 266 266 266 266 266 266 265 266 266 266 266 266 266 266 267 266 266 266 265 265 265 264 264 264 264 264 264 264 264 264 264 263 263 263 263 263 263 263 263 263 262 262 262 262 262 262 262 261 261 260 260 259 259 259 258 258 257 257 257
267 266 266 266 266 266 265 265 265 265 265 265 265 265 265 265 265 265 265 265 265 265 265 265 264 264 264 264 263 263 263 263 263 263 263 263 263 263 263 263 263 262 262 262 262 261 261 261 261 261 261 260 260 259 259 258 258 258 258 257 257 257 256
267 267 267 266 266 266 266 266 266 266 265 265 265 265 264 264 264 264 264 264 264 264 264 264 263 263 263 263 263 263 263 263 263 263 263 263 263 263 262 262 262 262 262 261 261 261 260 260 260 260 259 259 259 258 258 258 258 258 257 257 257 256 256
267 267 266 266 266 266 265 265 265 265 265 265 264 263 262 262 262 262 263 264 264 264 264 263 263 262 262 262 262 262 262 262 262 262 262 262 262 262 262 262 262 261 261 261 261 260 260 259 259 259 258 258 258 258 258 257 257 257 257 256 256 255 255

ECMWFFLT1_850_thetae_123.txt.gz
Theta_e
289 289 289 288 288 287 287 287 286 286 285 285 284 284 284 283 283 283 282 282 281 281 281 281 281 281 280 280 280 280 280 279 278 277 276 275 274 274 273 273 272 272 273 272 272 272 272 272 272 271 272 272 272 272 272 271 271 270 270 270 270 270 270
290 289 289 288 288 287 287 287 286 286 285 285 284 284 283 283 282 282 282 281 281 280 280 280 280 280 280 280 280 280 279 279 278 276 275 275 274 274 273 273 272 272 272 272 271 271 271 271 271 271 271 271 271 271 271 271 271 270 270 270 269 269 269
290 289 288 288 288 287 287 286 286 285 285 285 284 284 283 283 282 282 281 281 280 280 279 279 279 279 280 279 279 279 279 278 277 276 275 274 274 273 273 273 272 272 271 271 271 270 270 271 271 270 270 270 270 270 270 270 270 269 269 269 269 269 268
289 289 288 288 287 287 287 286 286 285 285 285 284 284 283 282 282 281 281 280 280 279 279 279 279 279 279 279 279 279 278 277 276 275 274 274 273 273 273 272 272 271 271 271 270 270 270 270 270 270 270 270 270 269 269 269 269 269 269 269 269 268 268
289 289 288 288 287 287 287 286 286 286 285 285 284 283 283 282 281 281 281 280 279 279 279 279 279 279 279 278 279 279 278 277 276 275 274 273 273 272 272 272 271 271 270 270 269 269 269 269 269 269 269 269 269 269 269 269 268 269 268 268 268 268 268
289 288 288 288 287 287 287 286 286 286 285 284 284 283 282 281 281 280 280 279 279 278 278 278 278 278 278 278 279 278 278 277 276 275 274 273 272 272 272 271 271 270 270 269 269 269 268 268 269 269 269 268 268 268 268 268 268 268 268 268 268 268 268
289 288 288 287 287 287 287 286 286 286 285 284 283 283 282 281 281 280 279 279 278 278 278 278 278 278 278 278 278 278 277 276 275 274 273 272 272 272 271 271 271 270 269 269 269 268 268 268 268 268 268 268 268 268 268 267 267 268 268 268 268 268 267
288 288 288 287 287 287 286 286 286 285 285 284 283 282 282 281 280 280 279 278 278 278 278 277 277 277 278 278 278 277 277 276 275 273 273 272 272 271 271 271 270 269 269 269 268 268 268 268 268 268 268 268 267 267 268 268 267 267 267 267 267 267 267
288 287 287 287 286 286 286 285 285 285 284 283 283 282 281 281 280 279 279 278 278 277 277 277 277 277 277 277 277 277 276 275 274 273 272 272 271 271 271 270 270 269 269 268 268 268 268 267 267 267 268 268 268 268 268 268 267 267 267 266 266 266 266
287 287 286 286 286 285 285 285 284 284 283 283 282 282 281 280 280 279 279 278 278 277 277 276 277 277 277 277 276 276 275 274 273 272 272 271 271 270 270 270 269 269 268 268 268 268 267 267 267 268 268 268 268 268 268 267 267 267 267 266 266 266 266
286 286 285 285 285 284 284 284 284 283 283 282 282 281 281 280 280 279 278 278 277 277 277 276 276 276 276 276 275 275 274 273 272 272 271 271 270 270 270 269 269 268 268 268 268 267 267 267 267 268 268 268 268 268 267 267 266 266 266 266 265 265 266
285 284 284 284 284 283 283 283 283 282 282 281 281 280 280 279 279 278 278 278 277 277 276 276 276 276 276 275 275 274 273 272 272 271 271 270 270 269 269 269 268 268 268 267 267 267 267 267 268 268 268 268 268 268 267 267 266 266 266 265 265 265 265
284 284 283 283 283 283 282 282 282 281 281 281 280 280 279 279 278 278 278 277 277 277 276 276 276 276 275 275 274 273 273 272 271 271 270 270 269 269 269 268 268 268 267 267 267 267 267 268 268 268 268 268 268 267 267 266 266 266 265 265 265 265 265
283 283 282 282 282 282 281 281 281 280 280 280 279 278 278 278 278 277 277 277 276 276 276 276 276 275 275 274 274 273 272 271 271 270 270 269 269 269 268 268 267 267 267 267 267 267 268 268 268 268 268 268 267 266 266 266 266 265 265 265 265 265 265
282 282 281 281 281 280 280 280 280 279 279 279 278 278 278 277 277 277 276 276 276 276 275 275 275 275 274 273 273 272 271 270 270 270 269 269 268 268 268 267 267 267 267 267 267 267 268 268 267 267 267 267 267 266 266 266 266 266 265 265 265 265 265
280 280 280 280 279 279 279 279 278 278 278 277 277 277 277 277 277 276 276 275 275 275 275 274 274 274 273 272 272 271 270 270 270 269 269 268 268 268 267 267 267 267 267 267 268 267 267 267 267 267 267 267 267 267 267 267 266 266 265 265 264 264 265
279 279 279 278 278 278 277 277 277 277 277 276 276 277 277 277 277 276 275 275 275 274 274 273 273 272 272 271 271 271 270 270 269 269 269 268 268 268 267 267 267 267 267 268 268 269 269 268 268 268 268 268 268 268 268 267 267 267 266 265 265 265 265
278 278 278 277 277 276 276 276 276 275 275 275 275 276 276 276 276 276 275 275 274 274 273 272 272 272 271 271 270 270 270 269 269 269 268 268 268 267 267 267 267 268 268 268 268 269 269 269 269 269 269 269 269 268 268 268 267 267 267 266 266 265 266
277 277 277 276 276 275 275 275 275 275 275 274 275 275 275 275 275 275 275 274 273 273 272 272 271 271 270 270 270 270 269 269 269 268 268 268 267 267 267 268 268 268 269 269 269 269 269 269 269 269 268 268 268 268 268 268 267 267 267 266 266 266 265
276 276 276 275 275 275 274 274 274 274 274 274 274 274 274 274 274 273 273 273 272 272 272 271 271 270 270 270 269 269 269 269 269 269 269 268 268 267 268 269 269 269 269 269 269 269 269 268 268 268 268 268 268 267 267 267 267 267 266 266 266 266 265
275 275 274 274 274 274 273 273 273 273 273 273 273 273 273 272 272 272 272 271 271 271 271 270 270 270 270 270 269 269 269 269 270 270 270 269 269 269 269 269 269 269 269 269 269 269 269 268 268 268 268 267 267 267 267 267 266 266 266 266 266 266 265
273 273 273 273 273 273 273 272 272 272 272 272 272 271 271 271 271 271 270 270 270 270 270 270 269 269 269 269 269 269 269 269 269 270 270 270 270 270 270 270 269 269 269 269 268 268 268 268 268 268 268 268 267 267 266 266 266 266 266 266 266 265 265
272 272 272 272 272 272 272 272 272 271 271 271 271 270 270 270 270 270 270 270 269 269 269 269 269 268 268 268 268 268 268 268 269 269 269 269 269 269 270 270 269 269 269 269 268 268 268 268 268 268 268 268 267 267 267 266 266 266 266 265 265 265 265
271 271 271 271 271 271 271 270 270 270 270 270 270 269 269 269 269 269 269 269 269 269 269 269 268 268 268 268 267 267 268 268 269 269 269 270 270 270 269 269 269 269 269 268 268 268 268 268 268 268 268 268 267 267 267 266 266 266 266 265 265 265 265
271 271 270 270 270 270 269 269 269 269 269 269 268 268 268 268 268 268 268 268 268 269 269 269 269 268 268 268 268 268 268 268 269 269 269 269 269 269 269 268 268 268 268 268 268 268 268 267 267 267 267 267 267 266 266 266 266 266 266 265 265 265 265
269 269 269 268 268 268 268 268 268 268 268 268 267 267 267 268 267 267 267 267 267 267 268 268 268 268 268 268 268 268 267 267 267 268 268 268 268 268 268 268 268 268 267 267 267 267 267 267 267 267 267 267 266 266 266 266 265 265 265 265 265 265 265
268 268 268 267 267 267 267 267 267 267 267 267 266 266 267 267 267 267 267 267 267 267 267 267 267 267 267 267 267 267 267 267 267 267 267 267 267 267 267 267 267 267 267 267 267 267 266 266 266 266 266 266 265 265 265 265 265 265 265 265 264 264 264
267 267 267 267 266 266 266 266 267 267 266 266 266 266 266 267 267 267 267 267 267 267 266 266 266 266 266 266 266 266 266 266 266 266 266 266 266 266 267 267 266 266 266 266 267 267 266 266 266 265 265 265 265 265 265 265 264 264 264 264 264 263 263
267 267 267 266 266 266 266 266 266 266 266 266 266 266 267 267 267 267 267 267 267 267 267 267 266 266 266 266 266 266 266 266 266 266 265 265 265 265 266 266 265 265 266 266 266 266 266 265 265 265 265 265 265 265 265 264 264 264 263 263 263 263 263
266 266 267 267 267 266 266 266 266 266 266 266 267 267 267 267 268 268 268 268 268 267 267 267 267 267 266 266 266 266 266 266 266 266 265 265 265 265 265 265 265 265 265 265 265 265 265 265 265 265 264 264 264 264 264 264 263 263 263 263 262 262 262
266 266 266 266 266 266 265 266 265 265 266 266 267 267 267 268 268 268 267 267 267 266 266 266 266 266 266 266 266 266 266 266 266 266 266 266 266 265 265 265 265 265 265 265 265 265 265 265 265 264 264 264 264 263 263 263 263 263 262 262 262 262 262
266 266 266 265 265 265 264 264 265 265 265 265 266 266 267 267 267 267 267 267 266 266 266 266 266 266 266 266 266 266 266 266 266 266 266 265 265 265 265 265 265 265 265 265 265 265 265 264 264 264 264 264 263 263 263 262 262 262 262 262 262 261 261
266 266 266 266 265 265 264 264 264 265 265 265 265 265 265 266 266 266 266 266 266 265 265 265 265 264 264 264 265 265 265 265 265 265 265 265 265 265 265 265 265 265 264 264 264 264 264 264 264 264 264 263 263 263 262 262 262 262 261 261 261 261 260
267 266 266 265 265 265 264 264 264 264 265 265 265 264 264 264 264 264 264 264 264 264 264 264 263 263 263 263 263 263 264 264 264 264 264 264 264 264 264 264 264 264 264 264 264 264 263 263 263 263 263 263 263 262 262 262 261 261 261 261 260 260 260
266 266 265 265 265 264 264 264 264 264 264 264 263 263 263 262 262 262 262 263 263 263 262 262 262 262 262 261 261 262 262 262 263 263 263 263 263 263 263 263 263 263 263 263 263 263 263 263 263 263 262 262 262 262 262 261 261 261 261 260 260 260 259
265 265 265 265 264 263 263 263 263 263 263 262 261 261 261 261 261 260 260 261 261 261 261 261 260 260 260 260 260 260 260 261 261 261 262 262 262 262 262 262 262 262 262 262 262 262 262 262 262 262 262 262 262 261 261 261 261 260 260 260 259 259 258

ECMWFFLT1_850_thetae_126.txt.gz
Theta_e
292 291 291 290 290 290 289 289 289 289 288 287 287 287 286 285 285 284 284 284 284 284 283 283 283 284 284 283 283 283 282 282 282 281 281 280 280 279 279 278 278 277 278 278 277 276 276 275 274 274 274 274 274 273 273 273 272 272 272 272 272 272 272
292 292 291 291 290 290 289 289 289 288 288 287 287 287 286 286 285 284 284 284 283 283 283 283 283 283 283 282 282 282 281 281 281 281 280 280 280 279 279 279 278 278 278 277 277 276 275 274 274 273 273 273 273 273 272 272 272 272 272 272 272 272 272
292 292 291 291 290 290 289 289 289 288 288 287 287 287 286 286 285 285 284 284 284 283 283 282 282 282 282 281 281 281 280 280 280 280 280 280 280 279 279 279 279 278 277 277 276 276 275 274 273 273 273 273 272 272 272 272 272 272 272 272 272 272 272
291 291 291 291 290 290 289 289 288 288 288 287 287 286 286 286 285 285 285 284 284 283 283 282 282 282 281 280 280 280 279 279 279 279 279 279 279 279 279 279 279 278 277 276 276 275 274 274 273 272 272 272 272 272 272 272 272 272 272 272 272 272 272
291 291 291 291 290 290 290 289 289 288 288 287 287 286 286 285 285 285 285 284 284 283 283 282 282 282 281 280 280 279 279 279 279 279 279 279 279 279 279 279 279 278 276 276 275 274 274 273 272 272 272 271 271 271 271 271 271 271 272 272 272 271 271
291 291 291 290 290 290 290 289 289 288 288 287 287 286 286 285 285 284 284 284 284 283 282 282 282 281 280 280 279 279 279 279 279 279 279 279 279 278 279 279 278 277 276 275 274 274 273 272 272 271 271 271 271 271 271 270 270 271 271 271 271 271 271
290 291 290 290 290 290 289 289 288 288 288 287 286 286 285 285 284 284 284 283 283 282 282 281 281 280 280 280 279 279 279 279 278 278 278 278 278 278 278 278 277 276 275 275 274 273 272 272 271 271 271 270 270 270 270 270 270 270 271 271 271 271 270
290 290 290 289 289 289 288 288 288 288 287 287 286 286 285 285 284 284 283 283 282 282 281 281 280 280 280 279 279 279 279 278 278 278 278 278 278 278 278 278 277 276 275 274 273 273 272 272 271 270 270 270 270 270 270 270 270 270 270 270 270 269 269
289 289 289 288 288 288 288 287 287 287 287 286 286 286 285 285 284 283 283 282 282 281 281 280 280 280 279 279 279 278 278 278 278 278 278 278 277 277 278 277 276 275 274 273 273 272 272 271 271 270 270 270 270 270 270 270 269 269 269 269 269 269 269
288 288 288 287 287 287 287 287 286 286 286 286 286 285 285 284 284 283 283 282 282 281 280 280 280 279 279 278 278 278 277 277 277 277 277 277 277 277 277 277 276 275 274 273 272 272 271 271 271 270 270 270 270 270 269 269 269 269 268 268 268 268 268
286 286 286 286 286 285 285 285 285 285 285 285 285 284 284 284 283 283 282 282 281 281 280 280 279 279 278 278 277 277 277 277 277 277 277 277 277 277 276 276 275 274 273 273 272 272 271 271 271 270 270 270 269 269 269 269 268 268 268 267 267 268 268
285 285 285 285 285 284 284 284 284 284 284 283 283 283 283 283 282 282 281 281 281 280 280 279 279 278 278 278 277 277 277 276 276 276 276 276 276 276 276 275 274 273 272 272 271 271 271 270 270 270 270 269 269 269 269 268 268 268 267 267 267 267 267
284 284 284 284 284 284 284 283 283 283 282 282 282 282 281 281 281 281 281 280 280 280 279 279 278 278 278 277 277 277 276 276 276 276 276 276 276 275 275 274 273 273 272 271 271 271 270 270 270 270 269 269 269 268 268 268 267 268 267 267 267 267 267
283 283 283 283 283 283 283 283 282 282 281 281 281 280 280 280 280 280 280 280 279 279 279 278 278 278 278 277 277 277 276 276 276 276 275 275 275 275 274 274 273 272 271 271 271 270 270 270 270 269 269 269 268 268 268 267 267 267 267 267 267 267 267
282 282 282 282 282 282 282 281 281 281 280 280 279 279 279 279 279 279 279 279 279 278 278 278 278 277 277 277 277 277 276 276 276 275 275 275 275 275 274 273 273 272 271 271 270 270 270 270 270 269 269 268 268 268 267 267 267 267 267 267 267 267 267
280 280 280 280 280 280 280 280 280 279 279 279 278 278 278 278 279 279 279 278 278 278 278 277 277 277 277 276 276 276 276 276 275 275 275 275 275 274 273 273 272 272 271 270 270 270 270 269 269 269 268 268 268 268 268 267 267 267 267 267 267 267 267
279 279 279 279 279 279 279 279 279 278 278 278 277 277 277 277 278 278 278 278 278 278 278 277 277 277 276 276 275 275 275 275 275 274 274 274 274 273 273 272 271 271 270 270 270 270 269 269 269 269 269 269 269 269 269 268 268 268 268 267 267 267 268
278 278 278 278 278 277 277 277 277 277 277 276 276 276 276 277 277 277 277 277 277 277 277 277 277 276 276 275 275 275 275 274 274 274 274 273 273 272 272 271 271 270 270 270 269 270 270 270 270 270 270 270 270 270 270 269 269 269 269 268 268 268 268
277 277 277 276 276 276 276 276 276 276 276 275 275 275 275 276 276 276 276 276 276 276 276 276 276 275 275 275 274 274 274 274 273 273 273 272 272 271 271 271 270 270 270 270 269 269 269 269 270 270 270 270 270 270 269 269 269 269 269 268 268 268 267
276 275 275 275 275 275 275 275 275 275 274 274 274 274 274 275 274 274 275 274 274 274 274 274 274 274 274 274 274 274 273 273 273 273 272 272 271 271 271 271 270 270 270 270 269 269 269 269 269 269 269 269 269 269 269 269 269 268 268 268 268 267 267
274 274 274 274 274 274 273 273 273 273 273 273 273 274 274 274 273 273 273 273 273 273 273 273 273 273 273 273 273 273 273 273 273 273 272 271 271 271 271 270 270 270 270 269 269 269 269 269 269 269 269 269 269 269 269 269 269 268 268 268 267 267 267
273 273 273 273 273 273 272 272 272 272 272 272 272 272 273 273 273 273 272 272 272 272 272 272 272 272 272 272 272 272 272 273 273 273 272 272 271 271 271 271 270 270 270 270 270 269 270 269 269 269 269 269 269 269 269 268 268 268 268 268 267 267 267
272 272 272 272 272 272 272 272 271 271 271 271 271 271 271 271 271 271 271 271 271 271 271 271 270 270 270 270 270 271 271 272 272 272 272 272 272 272 271 271 271 270 270 270 270 269 269 269 269 269 269 269 269 269 269 268 268 268 268 267 267 267 267
271 271 271 271 271 271 271 270 270 270 270 270 270 270 270 270 270 270 269 269 270 270 270 270 270 270 270 270 270 270 270 271 271 271 271 271 271 271 271 270 270 270 270 270 269 269 269 269 269 269 269 269 269 269 269 268 268 268 268 267 267 267 267
269 269 269 269 269 269 269 269 269 269 269 268 268 268 268 269 268 268 268 268 268 269 269 269 269 269 269 269 270 270 270 270 271 271 271 271 271 270 270 270 270 270 270 269 269 269 269 269 269 269 269 269 269 268 268 268 268 268 268 267 267 267 266
268 268 268 267 267 267 268 268 268 268 268 267 267 267 268 268 268 268 268 267 267 267 268 268 268 268 268 269 269 269 269 269 269 269 269 269 269 269 269 269 269 269 269 269 269 269 269 268 268 268 268 268 268 268 268 268 268 267 267 267 267 267 266
267 267 267 267 267 267 267 267 267 267 267 267 267 267 267 267 267 267 267 267 267 267 267 267 267 267 267 267 268 268 268 268 268 268 268 268 268 268 268 268 268 268 268 268 268 268 268 268 267 267 267 267 267 267 267 267 267 267 267 266 266 266 266
267 266 266 266 266 266 266 266 266 266 266 266 267 267 267 267 267 268 268 268 268 268 267 267 267 266 266 266 266 267 267 267 267 267 268 268 267 267 267 267 267 267 267 267 267 267 267 267 267 266 266 266 266 266 267 267 266 266 266 266 266 266 266
266 266 266 266 266 265 265 265 265 265 265 266 266 266 267 267 267 267 267 267 267 267 267 267 267 267 267 266 266 266 266 266 266 266 267 267 267 267 267 266 267 266 266 267 267 267 267 266 266 266 266 266 266 266 266 266 266 266 265 265 265 265 265
265 265 265 265 265 265 265 264 264 264 265 265 266 266 266 267 267 267 266 266 266 266 266 266 266 266 266 266 266 266 266 266 266 266 266 266 266 266 266 266 266 266 266 266 266 266 266 266 266 265 265 265 265 265 265 265 265 265 265 264 264 264 264
265 265 264 264 264 264 264 264 264 264 264 264 264 265 265 266 266 266 266 266 266 265 265 265 265 265 265 265 265 266 266 266 266 266 266 266 266 266 266 266 266 266 266 266 265 265 265 265 265 265 265 265 265 264 264 264 264 264 264 263 263 263 263
265 265 265 264 264 264 263 263 263 264 264 264 264 264 264 264 265 265 265 265 265 265 264 264 264 264 264 263 264 264 264 264 265 265 265 265 265 265 265 265 265 266 266 266 265 265 265 265 265 265 265 265 265 264 264 264 264 264 264 263 263 263 263
265 265 265 265 264 264 263 263 263 263 264 264 264 264 263 263 263 263 264 264 264 263 263 263 263 262 262 262 262 262 262 262 263 263 263 264 264 264 264 265 265 265 265 265 265 265 265 265 265 265 265 265 265 264 264 264 264 264 264 263 263 262 262
265 265 264 264 264 264 263 263 263 263 263 263 262 261 261 261 262 262 262 262 262 262 262 261 261 261 261 261 261 261 261 261 261 261 262 262 262 263 263 263 264 264 264 264 264 264 264 264 264 264 264 264 264 264 264 264 264 264 263 263 263 262 262
265 265 264 263 263 262 262 262 261 261 261 260 259 259 260 260 261 261 261 261 261 261 260 260 260 259 259 259 259 259 259 259 260 260 260 260 260 261 261 262 262 263 263 263 263 263 264 264 264 264 264 264 264 264 264 263 263 263 263 263 262 262 262
263 263 263 262 262 261 261 260 260 259 258 258 257 258 258 259 258 258 258 259 259 259 258 258 258 257 257 257 257 256 257 257 258 258 259 259 259 260 260 260 261 261 262 262 262 262 263 263 263 263 263 263 263 263 263 263 263 263 263 262 262 262 262

ECMWFFLT1_850_thetae_129.txt.gz
Theta_e
293 293 292 292 292 291 291 291 291 290 290 289 289 289 288 288 287 287 287 286 286 286 285 285 285 285 285 285 284 284 284 284 284 283 283 283 282 282 282 282 281 281 281 281 281 281 281 281 281 281 281 281 281 279 278 278 277 277 276 276 276 276 276
293 292 292 292 291 291 291 291 290 290 290 289 289 289 288 288 287 287 287 286 286 286 285 285 285 285 285 284 283 284 283 283 283 282 282 282 282 281 282 281 281 281 281 281 281 281 281 281 281 280 281 281 281 279 278 277 276 276 275 275 275 275 275
292 292 292 292 291 291 291 290 290 290 289 289 289 289 288 288 288 287 287 286 286 286 285 285 285 285 284 283 283 283 283 282 282 281 281 281 281 281 281 281 281 280 280 280 280 280 281 280 280 280 280 280 280 278 277 276 275 275 274 274 274 274 274
291 291 291 291 291 290 290 290 290 289 289 289 289 289 288 288 288 287 287 287 286 286 285 285 285 285 284 283 282 283 282 282 281 281 281 280 280 280 280 280 280 280 280 280 280 280 280 280 280 280 280 279 278 277 276 275 274 274 273 273 273 273 273
290 290 290 290 290 289 289 289 289 289 289 289 289 288 288 288 287 287 287 287 286 286 285 285 284 285 284 283 282 282 282 281 281 280 280 280 280 280 280 280 280 279 279 279 279 279 279 279 279 279 279 278 277 276 275 274 274 273 273 273 273 273 273
289 289 289 289 289 289 289 289 289 289 288 288 288 288 288 287 287 287 286 286 286 286 285 284 284 284 283 282 282 282 282 281 281 280 280 280 280 279 279 279 279 279 278 278 278 278 278 278 278 278 278 278 277 276 275 274 273 273 273 273 273 273 272
288 288 288 288 288 289 289 289 288 287 287 287 287 287 287 287 286 286 286 286 285 285 285 284 284 284 283 282 282 282 282 281 281 280 280 280 280 279 279 279 279 279 278 278 278 277 277 277 277 277 278 277 276 275 273 273 273 273 273 273 272 272 272
287 287 287 287 288 288 288 288 287 287 286 286 286 286 286 286 286 285 285 285 285 285 284 284 284 283 283 282 282 282 282 281 281 280 280 280 279 279 278 278 278 278 278 278 277 277 276 276 277 277 277 276 274 273 273 273 273 273 273 273 272 272 272
286 286 286 287 287 287 288 287 287 286 286 285 285 285 285 285 285 285 285 285 284 284 284 284 283 283 283 282 282 282 281 281 280 280 280 280 279 279 278 278 278 277 277 277 276 276 276 276 276 276 276 275 274 274 274 274 273 273 272 272 272 271 271
286 286 286 286 286 286 286 286 286 286 285 285 284 284 284 284 284 284 284 284 284 284 283 283 283 283 282 282 282 281 281 280 280 280 279 279 279 279 278 278 278 277 277 277 276 276 276 275 276 276 276 276 275 275 274 273 272 272 272 271 271 271 271
285 285 285 285 285 285 285 285 285 285 284 284 284 283 283 283 283 283 283 283 283 283 283 282 282 282 282 281 281 281 280 280 279 279 279 278 278 278 278 278 278 277 277 277 276 276 276 276 276 276 276 276 275 274 273 273 272 272 271 271 270 270 270
283 284 284 284 284 284 284 284 284 284 284 284 283 283 283 283 283 282 282 282 282 282 282 282 281 281 281 281 281 280 280 279 279 279 278 278 278 277 277 277 277 277 277 277 276 276 276 276 276 276 276 276 275 274 273 272 272 271 271 270 270 270 270
282 282 283 283 283 283 283 283 283 283 283 283 282 282 282 281 282 281 281 281 281 281 281 281 281 281 280 280 280 280 279 279 278 278 278 277 277 277 277 277 276 276 276 276 276 276 276 276 276 276 276 275 274 273 272 272 271 271 270 270 270 270 269
281 281 281 281 281 282 281 281 282 282 282 281 281 281 280 280 280 280 280 280 280 280 280 280 280 280 280 280 279 279 279 278 278 278 277 277 277 276 276 276 276 275 275 275 275 275 275 275 275 275 275 274 273 272 272 271 271 270 270 270 269 269 269
279 279 280 280 280 280 280 280 280 280 280 280 280 280 279 279 279 279 279 279 279 279 279 279 279 279 279 279 279 279 278 278 278 277 277 276 276 276 276 276 276 275 275 275 275 275 275 275 275 275 274 273 272 272 271 271 270 270 270 269 269 268 268
278 278 278 278 278 279 279 279 279 279 279 279 278 278 278 278 278 278 278 278 278 278 278 279 279 279 278 278 278 278 278 277 277 277 276 276 276 276 276 276 276 275 275 275 275 275 275 275 275 274 273 273 272 271 271 270 270 270 269 269 268 268 268
277 277 277 277 277 277 277 277 277 277 277 277 277 277 277 277 277 277 277 277 277 277 278 278 278 278 278 278 278 278 278 277 277 276 276 276 275 275 275 275 275 275 274 274 274 274 275 275 274 273 273 272 271 271 271 270 270 269 269 269 268 268 268
276 276 276 276 276 276 276 276 276 276 276 276 276 275 275 276 276 276 276 276 276 276 276 277 277 277 277 277 277 277 277 277 277 276 276 275 275 275 275 274 274 274 274 274 274 274 274 274 273 273 272 272 271 271 271 270 270 270 269 269 269 268 269
275 275 275 275 275 275 275 275 275 275 275 275 275 274 274 274 274 274 275 275 275 275 275 275 275 276 276 276 276 276 276 276 276 275 275 275 274 274 274 274 274 274 274 274 274 274 274 273 273 272 271 271 271 270 271 270 270 270 270 270 270 270 269
273 274 274 274 274 273 273 273 274 274 274 273 274 273 273 273 273 273 273 273 273 273 274 274 274 274 274 274 275 275 275 275 275 275 275 274 274 274 274 274 274 274 274 274 273 273 273 272 272 271 271 271 270 270 270 270 270 270 270 269 269 269 269
273 273 273 273 273 273 273 272 273 273 273 273 273 273 273 273 273 273 272 272 272 272 272 273 273 273 273 273 273 273 274 274 275 275 274 274 274 274 274 274 274 274 273 273 273 272 272 271 271 271 270 270 270 270 270 270 269 269 269 269 269 269 269
271 271 272 272 272 272 271 271 271 271 272 272 272 272 272 272 272 272 272 271 271 271 271 271 271 272 272 273 273 273 273 274 274 275 274 274 274 274 274 274 274 273 273 273 272 272 271 271 271 270 270 270 270 269 269 269 269 269 269 269 269 268 268
270 270 270 270 270 270 270 270 270 270 270 270 270 270 270 270 270 270 270 270 270 270 270 270 270 270 271 271 272 272 272 273 273 274 274 274 274 274 274 273 273 273 273 272 272 272 271 271 271 271 270 270 270 270 270 269 269 268 268 268 268 268 268
269 269 269 269 269 269 269 269 268 268 268 268 269 269 269 269 269 269 269 269 269 269 269 269 269 270 270 270 271 271 271 272 272 273 273 273 273 273 273 273 273 272 272 272 272 272 271 271 271 271 271 270 270 270 270 270 269 269 269 268 268 268 268
268 268 268 268 268 268 269 268 268 268 268 268 268 268 268 268 268 268 268 268 268 267 267 267 268 268 268 269 269 270 270 271 271 271 272 272 272 272 272 272 272 272 272 271 271 271 271 271 271 271 270 270 270 270 270 270 269 269 269 269 268 268 268
268 267 267 267 267 267 268 268 268 268 268 268 268 267 267 267 267 267 267 267 267 267 267 267 267 267 267 267 268 268 269 269 270 270 271 271 271 271 271 271 270 271 270 270 270 270 270 270 270 270 270 270 269 269 269 269 269 269 269 269 269 268 268
266 266 266 265 266 266 266 267 267 267 267 267 267 266 266 266 266 266 267 267 267 267 267 267 268 267 267 267 267 267 267 267 268 268 269 269 270 270 270 270 270 270 269 269 269 269 269 269 269 269 269 269 269 269 269 269 269 269 269 268 268 268 268
265 265 265 264 265 265 265 266 266 267 267 266 266 265 265 265 265 266 266 266 266 266 267 267 267 267 267 267 267 267 267 266 266 267 267 267 268 268 269 269 269 269 268 268 268 268 268 268 268 268 268 268 268 268 268 268 268 268 268 268 268 268 268
265 264 264 264 264 264 265 265 265 265 266 266 265 264 265 265 265 265 265 265 265 265 265 266 266 266 267 267 267 267 267 266 266 266 266 266 266 266 267 267 267 267 267 268 268 267 267 267 267 267 267 267 267 267 267 267 267 267 267 267 267 267 267
264 264 264 264 264 264 264 263 263 264 265 265 264 264 264 264 264 264 264 264 264 265 265 265 265 265 265 265 266 266 266 266 266 266 266 266 266 266 266 266 266 266 267 267 267 267 267 267 267 266 266 266 266 266 266 266 266 266 266 266 266 266 267
264 264 264 264 264 263 263 263 263 264 264 263 263 263 263 263 263 263 263 263 264 264 264 264 264 264 264 264 264 264 264 264 265 265 265 265 265 266 266 266 266 266 266 266 266 266 266 266 266 266 266 266 266 266 265 265 265 265 265 265 265 266 266
264 264 264 264 263 263 262 262 263 263 263 262 262 262 261 262 262 262 262 263 263 263 262 262 262 262 262 262 262 262 262 262 263 263 263 264 264 264 265 265 265 265 265 265 265 265 265 265 265 266 266 265 265 265 265 265 265 265 265 264 264 264 264
264 264 264 264 264 263 262 262 261 261 261 261 260 259 260 261 262 261 261 262 261 261 261 260 260 260 260 260 260 260 260 260 261 261 261 261 262 262 263 263 264 264 264 264 264 264 264 264 264 265 265 265 265 265 264 264 264 264 264 264 264 264 264
264 264 263 263 263 262 262 261 261 260 260 259 258 258 259 260 260 260 260 259 259 259 259 259 258 258 258 258 258 258 258 258 259 259 259 260 260 260 261 261 262 262 263 263 263 263 263 263 264 264 264 264 264 264 264 264 264 263 263 263 263 263 263
264 263 262 262 261 261 260 260 260 259 258 257 256 257 258 258 258 258 258 258 258 257 257 257 256 256 256 256 256 256 256 256 257 257 258 258 258 259 259 260 260 261 261 262 262 262 262 263 263 263 263 263 263 263 264 263 263 263 264 263 263 263 264
262 262 261 260 260 259 259 259 259 258 257 256 256 256 256 257 256 256 256 256 256 255 255 254 254 254 254 254 254 254 254 254 255 255 256 256 257 257 257 258 258 259 260 260 261 261 262 262 262 262 263 263 263 263 263 263 263 263 263 264 264 263 263

ECMWFFLT1_850_thetae_132.txt.gz
Theta_e
292 292 292 292 292 292 291 291 291 291 290 290 290 290 290 290 289 288 289 288 288 288 287 287 287 287 287 286 286 286 286 286 285 285 285 284 284 283 283 282 281 281 282 282 282 282 282 282 283 283 283 284 284 284 284 284 284 284 283 283 283 282 281
290 290 291 291 292 291 291 291 291 290 290 290 290 290 290 289 289 289 289 288 288 288 287 287 287 287 287 286 285 285 285 285 285 284 284 284 284 283 283 282 281 281 281 281 281 281 281 281 281 282 282 282 283 283 283 283 283 283 283 283 283 282 281
289 289 290 290 290 291 290 290 290 289 289 289 289 289 289 289 289 289 289 288 288 288 287 287 287 287 287 285 285 285 285 285 284 284 283 283 283 283 283 282 281 280 280 280 280 280 281 281 281 281 281 281 281 281 281 282 282 282 282 282 281 281 280
287 288 288 289 289 289 289 289 289 289 288 288 288 288 288 288 288 288 288 288 288 288 287 286 286 287 286 285 285 285 285 284 284 283 283 283 282 282 282 282 280 280 280 280 280 280 280 280 280 281 280 280 280 280 280 280 280 280 280 280 280 280 279
287 287 287 287 287 288 288 288 288 288 288 288 288 288 288 288 287 287 287 287 287 287 287 286 286 286 286 285 284 285 284 284 283 283 282 282 282 282 281 281 280 280 279 279 279 279 280 280 280 280 280 279 279 279 279 279 279 279 279 279 279 278 278
287 287 287 287 286 286 287 287 287 287 287 287 287 287 287 287 286 287 287 287 287 287 286 286 286 286 285 284 284 284 284 283 283 283 282 282 282 281 281 280 280 279 279 279 279 279 279 279 279 279 279 279 279 279 278 278 278 278 278 278 278 278 278
287 287 287 287 286 286 286 286 286 286 286 287 286 286 286 286 286 286 286 286 286 286 286 285 285 285 285 284 284 284 284 283 283 282 282 282 282 281 280 280 279 279 279 278 278 278 278 278 279 279 279 278 278 278 277 277 277 277 277 278 278 278 277
285 285 286 286 286 286 286 286 286 286 286 286 286 286 285 285 285 285 285 285 285 285 285 285 285 285 285 284 284 284 283 283 283 282 282 282 281 281 280 280 279 279 278 278 278 278 278 278 278 278 278 277 277 276 276 276 276 277 277 277 277 277 277
283 283 284 284 284 285 285 285 285 285 285 285 285 285 285 285 285 284 284 284 284 284 284 284 284 284 284 284 283 283 283 283 282 282 281 281 281 280 280 279 279 278 278 278 278 278 277 277 277 277 277 276 276 277 277 277 277 277 277 277 277 277 276
282 282 282 282 283 283 283 284 284 284 284 284 284 284 284 284 284 284 284 283 283 283 283 283 283 283 283 283 283 283 282 282 282 281 281 281 280 280 280 280 279 278 278 278 277 278 277 277 277 278 277 277 278 278 277 277 276 276 277 276 276 276 276
281 281 281 281 281 281 282 282 282 283 283 283 283 283 283 283 283 283 283 283 283 283 283 283 282 282 282 282 282 282 282 282 281 281 281 280 280 280 280 279 279 279 278 278 278 278 277 277 278 278 277 278 278 277 276 276 276 276 276 276 276 276 276
279 280 280 280 280 280 280 281 281 281 281 281 281 282 282 282 282 282 282 282 282 282 282 282 282 282 282 282 282 282 281 281 281 281 280 280 280 279 279 279 279 279 278 278 278 278 277 277 278 277 277 277 277 277 276 276 276 276 275 275 276 276 276
278 278 278 279 279 279 279 279 279 280 280 280 280 280 280 280 280 280 280 280 280 281 281 281 281 281 281 281 281 281 281 280 280 280 280 279 279 279 279 279 278 278 278 278 278 278 278 278 277 277 277 278 277 277 277 276 276 275 275 275 276 276 276
277 277 277 277 277 278 278 278 278 278 278 278 278 278 278 279 279 279 279 279 279 279 279 280 280 280 280 280 280 280 280 280 279 279 279 279 279 278 278 278 278 277 277 277 277 277 277 277 277 277 277 277 277 276 276 276 276 275 275 275 276 275 274
275 275 276 276 276 276 276 277 277 277 277 277 277 276 277 277 278 278 278 278 278 278 279 279 279 279 279 279 279 279 279 279 279 279 278 278 278 278 278 278 277 277 277 276 276 276 276 276 276 276 276 276 276 276 276 276 275 275 275 275 274 273 272
274 274 274 275 275 275 275 275 276 276 276 276 275 275 276 276 277 277 277 277 277 278 278 278 278 278 278 278 278 279 279 279 278 278 278 278 278 278 277 277 277 277 277 276 276 276 276 276 276 276 275 275 275 275 275 275 274 273 273 272 272 271 271
273 273 273 273 274 274 274 274 274 274 275 274 274 274 274 275 275 275 276 276 276 276 276 277 277 277 277 277 277 277 278 278 278 278 278 278 277 277 277 277 277 276 276 276 276 276 276 275 275 275 275 275 275 274 274 274 273 273 272 271 271 271 271
272 272 272 272 273 273 273 273 273 273 273 273 273 273 273 274 274 274 274 274 275 275 275 275 275 276 276 276 276 276 276 276 276 276 277 277 277 277 277 276 276 276 275 275 275 275 275 275 275 275 274 274 274 274 274 274 273 273 272 272 271 271 271
271 271 271 272 272 272 272 272 272 273 273 273 273 273 273 273 273 273 273 273 273 274 274 274 274 274 275 275 275 275 275 275 275 275 275 276 276 276 276 276 276 275 275 275 275 275 275 275 275 274 274 274 273 273 273 273 273 273 272 272 272 271 271
270 270 270 270 270 270 270 271 271 272 272 272 272 272 272 272 272 272 272 272 272 272 273 273 273 273 274 274 274 274 274 274 274 275 275 275 275 275 275 275 275 275 275 275 274 274 274 274 274 274 273 273 273 272 272 273 273 272 272 272 271 271 271
269 269 269 269 269 269 269 269 269 270 270 270 270 270 270 270 270 270 270 270 270 270 271 271 272 272 273 273 273 273 273 273 274 274 275 275 275 275 275 275 275 275 275 274 274 274 274 274 274 273 273 273 273 272 272 272 272 272 272 271 271 271 271
269 269 269 269 269 269 269 269 269 269 269 269 269 269 268 268 268 268 268 268 268 269 269 269 269 270 271 271 272 272 272 273 273 274 274 274 274 274 274 274 275 274 274 274 274 274 274 274 273 273 273 273 273 272 272 272 271 271 271 271 271 271 270
268 268 268 269 269 269 269 268 268 268 268 268 268 268 268 268 267 267 267 267 267 267 267 268 268 268 268 269 270 270 271 271 272 273 273 274 274 274 274 274 274 274 274 274 274 274 274 274 273 273 273 273 273 272 272 272 271 271 271 271 270 270 270
268 268 268 268 269 269 269 268 268 268 268 268 268 268 267 267 267 267 267 267 267 267 267 267 267 268 268 268 268 268 269 270 271 271 272 272 273 273 273 273 273 273 273 273 273 273 273 273 273 273 273 273 273 272 272 272 271 271 271 270 270 270 270
267 267 267 268 268 268 269 268 268 268 267 267 267 267 267 267 267 267 266 266 266 266 266 267 267 267 267 267 267 268 268 268 269 270 271 271 272 272 272 272 272 272 272 272 272 272 272 273 273 273 273 272 272 272 272 271 271 270 270 270 270 270 269
266 265 265 266 266 267 267 267 267 267 267 267 267 267 266 266 266 265 265 265 265 266 266 266 266 266 266 267 267 267 267 267 268 268 269 269 270 271 271 271 271 271 270 270 270 271 271 271 272 272 272 272 272 272 272 271 271 271 270 270 270 269 269
265 264 264 264 265 266 266 266 266 266 267 267 266 265 265 264 264 264 264 264 265 265 265 266 265 265 265 266 266 266 267 267 267 267 267 268 268 269 269 270 270 270 269 269 269 269 269 270 270 270 271 271 271 271 271 271 271 271 270 270 270 270 269
264 263 263 263 264 265 265 264 264 265 266 265 264 264 263 263 263 263 263 263 264 264 264 264 264 264 264 265 265 265 265 266 266 266 267 267 267 267 267 268 268 268 268 268 268 268 268 268 269 269 269 270 270 270 270 270 270 270 270 270 270 269 269
263 263 262 263 263 263 263 262 262 263 264 263 263 263 263 262 262 262 262 262 263 264 264 264 264 264 264 264 264 264 264 264 265 265 265 266 266 266 266 267 266 266 266 266 266 266 266 267 267 268 268 268 269 269 269 269 269 269 269 269 269 269 269
263 262 262 263 263 263 262 261 261 262 262 262 262 262 262 262 261 261 261 262 262 263 263 263 263 263 262 262 263 262 262 263 263 263 264 264 264 265 265 265 266 266 266 266 265 265 265 265 266 266 267 267 268 268 268 268 268 268 268 268 268 268 268
263 263 263 262 262 262 261 261 261 261 261 261 260 260 260 261 261 260 260 261 261 261 261 261 261 261 260 260 261 261 261 261 261 261 261 262 263 263 263 264 264 264 265 265 265 265 265 265 265 265 266 266 267 267 267 267 267 267 267 267 267 267 267
263 263 263 262 262 261 260 260 261 260 260 259 259 258 260 261 260 259 260 260 259 259 259 258 258 258 258 258 258 258 258 259 259 259 259 259 260 261 261 262 262 262 263 263 264 264 264 264 264 264 264 265 266 266 266 266 266 266 266 266 266 266 267
263 263 262 262 262 261 260 260 260 260 259 258 257 257 259 259 258 258 258 258 258 258 257 257 256 256 256 256 256 256 256 256 256 257 257 257 258 258 259 259 260 260 261 261 262 262 263 263 263 263 263 263 264 265 265 265 265 265 266 266 266 266 265
263 262 262 262 261 261 260 260 259 259 258 257 256 257 258 257 257 257 257 256 256 256 255 255 255 254 254 254 254 254 254 254 255 255 255 255 256 256 256 257 258 259 259 260 260 260 261 261 262 262 262 262 263 263 264 264 265 265 265 265 265 265 265
262 261 261 260 260 260 259 259 259 258 257 256 256 257 257 256 256 257 256 256 255 255 254 253 253 253 253 253 252 252 252 253 253 253 253 254 254 254 255 255 256 257 257 258 258 259 259 260 260 261 261 261 262 262 262 263 264 264 264 264 264 264 264
261 261 260 259 259 259 259 258 258 257 256 255 255 255 255 255 255 255 254 254 253 253 253 252 252 252 252 252 251 252 252 252 252 252 252 252 253 253 253 254 254 255 255 256 256 257 258 258 259 259 260 260 261 261 261 262 262 263 263 263 264 264 264

ECMWFFLT1_850_thetae_138.txt.gz
Theta_e
288 288 288 288 288 288 288 288 287 288 288 288 288 289 289 289 289 289 289 289 288 288 288 288 288 287 287 287 287 287 287 287 287 287 287 287 286 286 286 285 284 284 285 286 285 285 285 284 284 285 285 285 286 286 286 286 286 287 286 286 286 286 287
286 287 287 287 287 287 287 287 287 287 287 287 287 287 288 288 288 288 289 288 288 288 287 287 288 288 287 286 286 286 286 286 286 286 286 286 286 286 285 285 284 284 284 285 285 284 284 283 283 284 285 285 285 285 285 285 285 286 286 286 286 286 286
285 285 285 285 286 286 286 286 287 287 287 287 287 286 287 287 287 287 287 288 288 288 287 287 287 288 287 286 286 286 286 286 286 285 285 286 286 286 286 285 284 284 284 285 285 284 283 282 282 284 284 284 284 284 284 284 284 284 285 285 285 285 285
284 284 284 284 284 285 285 285 285 285 286 286 286 286 286 286 286 286 287 287 287 287 287 286 287 287 287 285 285 286 286 286 285 285 285 285 286 285 285 285 284 284 284 284 284 284 283 282 282 282 283 283 284 283 283 283 283 283 283 284 284 284 285
283 283 283 283 283 283 284 284 284 284 284 284 285 285 285 285 285 285 286 286 286 286 286 286 286 287 286 285 285 285 285 285 285 285 285 285 285 285 285 285 284 284 284 283 284 284 284 283 282 281 281 282 283 283 282 282 282 282 282 283 283 283 284
281 281 281 282 282 282 282 282 282 283 283 283 283 283 284 284 284 285 285 285 285 285 285 285 285 286 285 284 284 284 284 284 284 284 284 284 284 284 284 284 284 284 283 283 284 284 284 283 282 281 280 281 282 282 282 282 282 281 281 282 282 282 283
279 279 279 280 280 280 280 281 281 281 281 282 282 282 283 283 283 284 284 284 284 284 284 284 284 284 284 284 284 284 284 283 283 283 283 283 283 283 283 283 283 283 282 282 283 283 283 282 282 281 280 280 280 280 281 281 281 281 281 281 281 281 282
278 278 278 278 278 278 279 279 279 280 280 280 280 281 281 281 282 282 283 283 283 283 283 283 284 284 284 284 283 284 284 283 283 282 282 282 282 282 282 282 282 282 282 282 282 282 282 282 281 281 280 280 279 279 280 280 280 280 280 280 281 281 281
276 277 277 277 277 277 277 277 278 278 278 278 278 278 279 279 280 280 281 281 281 282 282 282 283 283 283 283 283 283 283 283 283 282 282 282 282 282 282 282 281 281 281 281 281 281 281 281 281 280 280 280 280 280 280 280 279 280 280 280 280 280 280
275 275 275 275 276 276 276 276 276 277 277 277 277 277 277 277 278 278 278 278 279 279 280 280 281 281 282 282 282 282 282 282 282 281 281 281 281 281 281 281 281 281 281 281 280 281 281 280 280 280 280 280 280 281 280 279 279 280 280 279 279 279 280
274 274 274 274 274 275 275 275 275 275 276 276 276 276 276 277 277 277 277 277 277 277 278 278 279 279 280 280 280 280 280 281 281 281 281 281 280 280 280 280 280 280 280 281 280 280 280 279 280 281 280 279 280 281 280 279 279 279 279 279 279 279 279
272 272 273 273 273 273 274 274 274 275 275 275 275 275 275 276 276 276 276 276 276 277 277 277 277 278 278 278 278 279 279 279 280 280 280 280 280 280 280 280 280 280 280 280 280 280 280 280 280 280 280 280 280 280 280 279 279 279 279 278 278 278 279
271 271 271 272 272 272 273 273 273 274 274 274 275 275 274 274 274 274 275 275 275 276 276 276 276 276 277 277 277 278 278 278 278 279 279 279 279 279 279 279 279 279 280 280 280 280 280 280 280 280 280 280 280 280 280 279 279 279 278 277 278 278 278
270 270 270 271 271 271 271 272 272 272 273 273 274 274 273 273 273 273 274 274 274 274 275 275 275 275 275 276 276 276 277 277 277 277 278 278 278 279 279 279 279 279 279 279 279 279 279 279 279 279 279 280 280 279 279 279 279 279 278 278 278 279 278
270 270 270 270 270 270 270 270 270 271 271 271 272 272 272 272 272 273 273 273 273 273 273 273 273 274 274 274 275 275 275 275 276 276 276 276 277 277 278 278 279 279 279 279 279 279 279 279 279 279 279 279 279 278 279 279 279 279 278 278 278 278 277
269 269 270 270 270 270 270 270 270 270 270 270 270 270 270 270 270 271 272 272 271 271 271 272 272 272 273 273 273 274 274 274 274 274 275 275 275 276 276 277 278 278 278 278 278 278 278 278 278 278 279 278 278 278 278 278 278 278 277 277 277 276 276
269 269 269 269 269 270 270 270 270 269 269 269 269 269 269 269 269 269 270 270 270 269 270 270 271 271 271 271 271 272 272 273 273 273 274 274 275 275 275 276 276 277 277 277 277 278 279 279 279 279 279 279 278 278 278 278 277 277 277 276 276 275 275
269 268 269 269 269 269 269 269 269 269 269 269 269 268 268 268 268 268 269 269 268 268 269 270 270 270 270 270 270 270 270 271 271 272 273 273 274 274 274 274 275 275 276 276 276 277 278 278 278 278 278 279 278 278 278 278 277 277 277 276 276 276 275
268 268 268 268 268 268 268 268 268 269 268 268 268 268 267 267 267 267 268 268 267 268 268 269 269 269 269 269 269 269 269 270 270 271 271 272 272 273 273 273 274 274 274 275 275 276 276 277 277 278 278 278 278 278 278 278 278 277 277 276 276 276 275
268 268 268 268 268 268 268 268 268 268 268 268 268 268 267 267 267 267 267 267 267 267 267 268 268 268 268 268 268 268 269 269 270 270 270 271 271 271 271 271 272 273 273 273 274 274 275 275 276 276 277 277 277 277 277 277 277 277 277 277 276 276 275
268 268 268 267 267 268 268 268 268 268 268 268 268 267 267 267 266 266 267 267 266 266 267 267 267 267 268 268 268 267 267 268 268 269 269 270 270 270 269 270 271 272 272 273 273 273 274 274 275 275 275 276 276 276 276 276 277 277 277 277 276 276 276
267 267 267 267 267 268 268 268 268 268 268 268 267 267 267 266 266 266 266 266 266 266 266 266 266 266 266 266 266 266 266 266 267 268 268 269 269 269 269 270 270 271 271 272 272 272 273 273 274 274 274 275 275 275 275 276 276 276 276 276 276 276 275
267 267 267 267 267 268 268 268 267 267 267 267 267 266 266 265 265 265 265 265 265 264 264 265 265 265 265 265 265 265 265 265 266 266 267 267 268 268 269 269 269 269 270 270 271 272 272 272 272 273 273 274 274 274 275 275 275 275 275 275 275 275 275
267 267 267 267 267 267 267 267 267 266 266 265 266 265 265 264 264 264 264 264 264 264 264 264 263 263 263 264 264 264 264 265 265 265 266 266 267 267 267 267 267 268 268 268 269 270 270 270 271 272 272 272 273 273 273 274 274 274 274 275 275 275 275
266 267 267 267 267 267 266 266 266 265 264 264 264 263 263 263 263 263 263 263 263 263 263 263 263 263 263 263 263 264 264 264 264 264 265 265 265 266 266 266 266 266 266 267 267 267 268 268 269 270 270 271 271 272 272 272 273 273 273 274 274 274 274
266 266 265 265 266 265 265 265 265 264 263 263 262 262 262 261 261 262 262 262 262 262 262 262 262 262 262 262 262 262 262 262 263 263 263 263 263 264 264 264 264 265 265 265 265 265 266 266 267 268 269 269 270 270 271 271 271 272 272 272 273 273 273
264 264 264 264 264 264 264 264 264 263 262 262 262 261 261 260 260 260 261 262 262 261 261 261 261 261 261 261 260 260 260 260 261 261 261 262 262 262 262 262 262 263 263 263 263 264 264 265 265 266 267 268 268 269 270 270 270 271 271 271 272 272 272
262 262 263 263 264 263 263 263 263 262 261 262 261 260 260 259 259 260 261 261 260 260 260 260 260 259 259 259 259 259 259 259 259 259 259 260 260 260 260 260 261 261 261 261 262 262 262 263 263 264 265 266 267 267 268 269 269 270 270 270 270 271 271
261 261 262 263 263 262 262 263 262 261 260 261 260 260 259 258 258 259 260 259 259 259 259 259 258 258 258 258 258 258 258 258 258 258 258 258 258 258 258 259 259 259 259 259 260 260 260 261 261 262 263 264 265 266 267 268 268 268 269 269 269 269 270
260 261 262 263 262 261 262 262 261 260 260 259 259 259 259 258 258 259 259 259 258 258 258 258 257 257 257 257 257 256 256 256 256 256 256 256 256 256 257 257 257 257 257 258 258 258 258 258 259 260 260 261 262 264 265 266 267 267 268 268 268 268 268
261 261 261 262 261 261 261 261 260 259 259 258 258 259 259 258 258 259 259 258 258 258 257 257 257 257 256 256 255 255 255 254 254 254 254 254 254 254 254 255 255 255 255 256 255 256 256 257 257 258 258 259 260 261 263 265 266 266 266 267 267 267 267
262 261 261 261 260 260 260 260 260 259 259 258 258 259 259 258 258 259 258 258 258 257 257 257 256 256 255 255 254 254 254 253 253 253 253 253 253 253 253 253 253 254 254 254 254 254 255 255 255 256 256 257 258 259 261 262 263 264 264 265 266 266 266
262 261 261 260 260 260 260 260 260 259 259 258 259 259 259 258 258 258 258 257 257 257 257 256 256 255 255 254 254 254 253 253 252 252 252 252 252 252 252 252 252 252 252 252 252 253 253 253 254 254 255 256 257 258 259 260 261 261 262 263 265 265 265
262 261 261 261 261 260 260 260 259 259 259 259 259 259 258 258 258 257 257 257 257 257 257 256 255 255 254 254 253 253 253 253 252 252 252 251 251 251 251 251 251 251 251 251 252 252 252 252 252 253 253 254 255 256 257 258 259 260 260 261 263 264 265
261 262 261 261 261 260 260 260 259 259 259 259 259 258 258 258 257 257 257 257 257 257 256 256 255 254 254 254 253 253 253 252 252 252 252 251 251 251 251 251 251 251 251 251 251 251 251 251 252 252 252 252 253 254 255 256 257 258 259 260 261 262 263
261 262 261 261 260 260 260 259 259 259 259 259 259 259 258 258 258 258 258 257 257 256 256 255 255 254 254 253 253 253 253 252 252 252 252 251 251 250 250 250 250 250 250 250 250 250 251 251 251 251 252 252 252 253 253 254 255 256 257 258 259 260 261

ECMWFFLT1_850_thetae_141.txt.gz
Theta_e
285 286 286 286 286 287 287 287 287 286 286 286 286 286 286 286 287 287 287 287 287 287 287 286 286 286 286 287 287 287 287 286 286 286 286 286 286 286 286 286 286 286 287 287 287 287 288 288 288 287 286 286 286 286 286 286 287 287 288 289 289 289 289
284 284 285 285 285 285 286 286 286 287 287 286 286 286 286 286 286 286 286 286 286 286 286 286 286 286 286 286 286 286 286 286 286 286 285 285 285 285 285 285 285 286 286 286 286 286 286 287 287 287 286 286 285 285 286 286 286 286 287 287 288 288 288
282 283 283 284 284 284 285 285 285 286 286 286 286 286 286 286 286 286 286 286 286 286 285 285 286 285 285 285 285 285 285 285 285 285 285 285 285 285 285 285 285 285 285 285 285 285 285 285 286 286 286 286 284 284 285 285 285 285 285 286 286 287 287
281 281 281 282 282 282 283 283 283 284 284 284 285 285 285 285 285 285 285 285 285 285 285 285 286 286 285 285 285 285 285 285 284 284 284 284 284 284 284 284 284 284 284 284 284 284 284 285 285 285 286 285 284 283 283 284 284 284 285 285 286 286 286
279 280 280 280 280 281 281 281 282 282 282 282 283 283 283 284 284 284 284 284 284 284 284 285 285 285 285 285 285 285 285 285 284 284 284 284 284 284 284 284 284 284 284 284 284 284 284 284 284 284 285 285 284 283 283 283 282 283 283 284 285 286 286
278 278 278 279 279 279 279 280 280 280 280 280 281 281 281 282 282 282 283 283 283 283 283 283 283 284 284 284 284 284 284 284 284 284 284 284 284 284 283 283 283 283 283 283 283 283 283 283 283 283 284 284 284 283 283 282 281 281 282 283 284 285 286
277 277 277 277 278 278 278 279 279 279 279 279 279 279 280 280 280 280 280 281 281 281 281 282 282 282 282 283 283 283 283 283 283 283 283 283 283 283 283 283 283 283 283 283 283 283 283 283 283 283 283 283 284 283 283 282 281 281 281 281 282 284 285
275 276 276 276 276 277 277 277 277 278 278 278 278 278 278 278 278 278 279 279 279 280 280 280 280 281 281 281 281 281 281 282 282 282 282 282 282 282 282 282 282 282 282 282 282 282 283 283 282 282 282 282 282 283 282 282 281 281 280 280 281 282 284
274 274 275 275 275 275 276 276 276 276 277 277 277 277 277 277 277 277 277 278 278 278 279 279 279 279 280 280 280 280 280 281 281 281 281 281 281 281 281 281 282 282 282 282 282 282 282 282 282 282 282 282 282 282 282 282 281 281 280 280 280 281 282
273 273 273 274 274 274 275 275 275 275 276 276 276 275 276 276 276 277 277 277 277 277 278 278 278 278 278 278 279 279 279 280 280 280 280 280 281 281 281 281 281 281 281 281 281 281 281 281 281 281 281 281 281 281 282 282 281 281 280 280 280 280 281
271 271 272 272 273 273 274 274 274 274 275 275 275 275 275 275 275 276 276 276 276 277 277 276 276 276 276 277 277 278 278 278 278 279 279 279 280 280 280 280 280 281 281 281 281 281 281 281 281 281 281 281 281 281 281 281 281 281 280 279 279 280 280
270 270 270 271 271 272 272 273 273 274 274 274 274 274 274 274 274 274 275 275 275 275 275 275 275 275 275 275 276 276 276 277 277 278 278 278 279 279 279 280 280 280 280 280 280 280 280 280 280 280 280 281 281 281 281 281 281 281 280 279 279 279 280
269 269 270 270 270 270 271 271 271 272 273 273 273 273 273 273 273 273 273 274 274 274 274 274 274 274 274 274 275 275 275 275 276 276 277 277 277 278 278 279 279 279 280 280 280 280 280 280 280 280 280 280 280 280 280 280 281 281 280 279 278 278 279
269 269 269 270 270 270 270 270 270 270 271 271 272 272 272 272 272 272 273 273 273 273 273 272 273 273 273 274 274 274 274 274 274 275 275 275 275 276 276 277 278 278 278 279 279 279 280 280 280 280 280 280 280 280 280 280 280 280 280 280 279 279 279
269 269 269 269 269 270 270 270 270 270 270 270 270 271 271 271 271 271 272 272 271 271 271 271 271 272 272 272 272 272 272 273 273 273 273 274 274 274 275 275 275 276 277 277 278 278 279 279 279 279 279 279 279 279 279 280 280 280 280 280 279 279 279
268 269 269 269 269 269 269 269 269 269 269 269 269 269 270 270 270 270 270 270 270 269 270 270 270 270 270 270 270 270 271 271 271 271 271 272 272 273 273 273 274 274 275 276 276 276 277 278 278 279 279 279 279 279 279 279 279 279 279 279 279 278 278
268 268 268 269 269 269 269 269 269 269 269 269 268 268 269 269 269 269 269 269 269 269 269 269 269 269 269 269 269 269 269 269 270 270 270 270 271 271 271 272 272 273 273 274 275 275 276 277 277 278 278 279 279 279 279 279 279 279 279 279 278 278 278
268 268 268 268 268 268 268 268 268 268 268 268 268 268 268 268 268 268 268 268 268 268 268 268 267 268 268 268 268 268 268 269 269 270 269 269 270 270 270 271 271 272 272 273 273 274 275 275 276 276 277 277 278 279 279 279 278 279 279 278 278 278 278
268 268 268 268 268 268 268 268 268 268 268 268 268 267 267 268 267 267 267 267 268 267 267 267 267 267 267 267 267 268 267 268 268 268 268 268 268 269 269 269 270 270 271 272 273 273 273 274 274 275 275 276 277 278 278 278 278 278 278 278 278 278 278
267 267 267 267 267 267 268 268 268 267 267 267 267 267 267 267 267 266 267 267 267 267 266 266 266 266 266 267 267 267 266 266 266 267 267 266 267 268 268 268 268 269 270 271 271 272 272 273 273 273 274 274 275 276 277 277 277 278 277 277 278 278 278
267 267 267 267 267 267 267 267 267 267 267 267 267 267 267 266 266 266 266 266 266 266 266 266 266 266 266 266 266 266 265 265 265 265 266 266 266 266 266 266 267 268 269 269 269 270 271 271 272 272 272 273 274 275 275 275 276 276 277 277 277 277 277
266 266 266 266 266 266 267 267 267 267 266 267 267 266 266 266 265 265 265 265 265 265 265 265 265 265 265 265 265 265 264 264 265 265 265 265 265 265 266 266 267 267 267 267 267 268 268 269 269 270 271 272 273 274 274 274 274 275 276 276 276 276 277
266 266 266 266 265 265 266 266 266 266 266 266 266 266 265 264 264 265 265 265 264 264 264 264 264 264 264 264 264 264 264 264 264 264 264 264 264 265 265 265 265 265 265 266 266 266 267 267 268 268 270 271 271 272 273 274 274 274 275 275 275 275 276
265 265 265 265 265 265 265 265 265 265 265 265 265 265 264 263 263 265 265 264 264 264 263 263 263 263 263 263 263 263 263 263 263 263 263 263 263 264 264 264 264 264 264 264 264 265 265 265 266 267 268 269 270 271 272 273 273 274 274 274 274 274 274
265 265 264 264 264 264 264 264 264 264 264 263 264 264 263 262 263 265 265 264 263 262 262 262 262 262 262 262 263 263 263 263 263 262 262 262 262 262 262 262 262 262 262 262 263 263 263 264 264 265 266 267 268 269 270 271 272 272 273 273 273 273 273
265 264 264 263 263 264 264 263 263 263 262 262 262 263 262 262 263 264 263 262 262 262 262 262 262 262 262 262 262 262 261 261 261 261 261 261 260 260 260 260 260 260 260 260 260 260 261 262 262 263 264 265 266 267 268 268 269 270 271 271 271 272 272
265 264 263 263 264 264 263 263 262 262 262 261 261 261 260 261 263 263 262 262 262 261 262 262 261 261 261 261 261 260 260 260 260 260 260 260 259 259 259 259 258 258 258 258 258 259 259 260 260 261 261 262 263 264 265 266 267 268 269 269 270 270 271
264 263 263 263 264 263 263 262 262 261 261 261 260 260 260 261 262 263 262 261 261 261 261 261 261 261 261 260 260 260 260 260 259 259 259 259 259 258 258 258 258 257 257 257 258 258 258 258 258 259 260 260 261 262 263 264 265 266 267 268 269 269 270
262 262 263 264 263 263 263 263 262 261 261 260 260 260 259 260 261 262 261 260 261 261 261 261 260 260 260 260 260 259 259 259 259 258 258 258 258 257 257 257 257 256 256 256 256 256 256 256 257 257 258 258 259 260 261 262 263 264 266 267 268 268 269
261 262 263 263 263 262 263 262 261 260 260 259 259 260 259 259 260 261 260 260 260 260 260 260 260 259 259 259 259 258 258 258 257 257 257 257 256 256 255 255 255 255 255 255 255 254 255 255 255 255 256 256 257 258 259 260 261 263 264 265 266 266 267
262 262 263 263 262 262 262 263 262 260 260 259 260 260 260 259 260 260 260 260 260 260 260 259 259 259 259 258 258 258 257 257 257 256 256 256 256 255 255 254 254 254 254 253 253 253 253 254 254 254 254 255 255 256 257 258 259 261 262 262 263 264 265
262 262 262 263 262 262 262 262 261 261 260 260 260 261 260 259 260 260 260 260 260 260 259 259 259 259 258 258 258 257 257 257 256 256 256 255 255 255 254 254 253 253 253 252 252 252 252 252 252 253 253 253 254 254 255 256 257 259 260 261 261 262 263
263 263 262 262 262 262 262 261 261 261 261 260 260 260 260 260 260 260 260 260 260 259 259 259 259 259 258 258 257 257 256 256 256 255 255 255 254 254 254 254 253 253 252 251 251 251 251 252 252 252 252 252 253 253 253 254 255 256 257 258 259 260 261
263 262 262 262 261 261 261 261 261 261 261 260 260 260 260 260 260 260 260 259 259 259 259 259 258 258 258 257 257 256 256 256 255 255 255 254 254 254 254 253 253 252 251 251 251 251 251 251 251 251 251 251 252 252 252 253 254 254 255 256 257 258 259
262 262 261 261 261 261 261 261 261 261 261 261 260 261 260 260 260 259 259 259 259 259 259 259 258 258 257 257 257 256 256 255 255 254 254 254 253 253 253 253 252 251 251 251 251 250 250 250 250 250 251 251 251 251 252 252 253 253 254 254 255 256 257
262 261 261 261 261 261 261 261 261 261 261 261 261 261 260 260 259 259 259 259 259 259 259 258 258 258 257 257 257 256 255 255 255 254 254 253 253 253 252 252 251 251 250 250 250 250 250 250 250 250 250 250 250 251 251 251 252 252 253 253 254 254 255

ECMWFFLT1_850_thetae_144.txt.gz
Theta_e
281 281 282 283 283 284 284 285 285 285 285 285 285 285 286 286 286 286 286 286 287 287 287 287 288 288 288 288 288 288 288 288 288 288 288 288 288 288 288 288 288 288 288 288 288 288 288 288 289 289 289 289 288 288 287 287 287 287 287 287 287 287 288
279 280 280 281 281 282 282 283 284 284 285 285 285 285 285 285 285 285 286 286 286 286 286 286 286 286 287 287 287 287 287 287 287 287 287 287 287 287 287 287 287 287 287 287 287 287 287 287 288 288 288 288 288 287 287 287 287 287 287 287 287 287 287
278 278 278 279 279 280 280 281 281 282 283 283 284 284 285 285 285 285 285 285 285 285 285 285 285 286 286 286 286 286 286 286 286 286 286 286 286 286 286 286 286 286 286 286 286 286 286 286 286 287 287 287 288 287 287 287 287 287 287 287 286 286 286
277 276 277 277 278 278 279 279 280 280 281 281 282 282 283 284 284 284 284 285 285 285 285 285 285 285 285 285 285 285 285 285 285 285 285 285 286 286 286 285 285 285 285 285 285 285 285 285 285 286 286 286 286 286 286 286 286 286 286 286 286 285 285
276 276 276 276 276 276 277 278 278 279 279 279 280 280 281 282 282 283 283 283 283 284 284 284 284 284 284 284 285 285 285 285 285 285 285 285 285 285 285 285 285 285 285 285 285 285 285 285 285 285 285 285 285 286 286 285 285 285 285 285 285 285 285
275 275 275 275 275 275 276 276 277 277 277 278 279 279 280 280 280 281 281 281 281 282 282 282 283 283 283 283 284 284 284 284 284 284 284 284 284 284 284 284 284 284 284 284 284 284 284 284 284 284 284 284 285 285 285 285 285 285 284 284 284 284 285
273 274 274 274 275 275 275 275 276 276 276 277 277 278 278 278 278 278 279 279 279 280 280 281 281 282 282 282 282 283 283 283 283 283 283 283 283 283 283 283 283 283 283 283 283 284 284 284 284 284 284 284 284 284 284 285 285 284 284 283 283 284 284
272 272 273 273 273 274 274 274 275 275 275 276 276 276 276 276 277 277 277 277 278 278 279 279 280 280 281 281 281 282 282 282 282 282 282 282 282 282 282 282 282 282 282 282 282 283 283 283 283 283 283 283 283 283 283 284 284 284 284 284 283 283 283
271 271 272 272 272 273 273 273 274 274 274 274 275 274 274 275 275 276 277 277 277 277 278 278 279 279 280 280 280 280 281 280 281 281 281 281 281 281 281 282 282 282 282 282 282 282 282 282 282 282 282 282 282 282 282 283 283 283 283 283 283 283 283
270 270 271 271 271 272 272 272 273 273 273 273 273 273 273 274 274 275 275 276 276 276 277 277 277 278 279 279 279 279 279 279 279 279 280 280 280 280 281 281 281 281 281 281 281 282 282 282 281 281 281 282 281 281 281 282 282 282 282 282 282 282 283
270 270 270 270 271 271 271 271 271 272 273 273 272 273 273 273 274 274 274 275 275 275 276 276 276 276 277 277 277 277 277 278 278 278 278 279 279 279 279 279 280 280 280 281 281 281 281 281 281 281 281 281 281 281 281 281 281 281 281 282 282 282 282
269 269 269 270 270 270 270 270 270 271 271 271 272 272 273 273 273 273 273 274 274 274 274 275 275 275 275 275 275 275 275 276 276 276 276 277 277 277 277 278 277 277 278 278 279 279 280 280 280 280 281 281 280 280 280 281 281 281 281 281 281 281 281
268 269 269 269 269 269 269 269 269 269 270 270 271 272 272 272 272 272 272 273 273 273 273 273 273 273 273 273 273 273 273 274 274 274 275 275 275 276 276 276 276 276 276 276 277 277 278 279 279 279 280 280 280 280 280 280 280 280 280 281 281 281 281
268 268 269 269 269 269 269 269 269 269 269 269 270 270 271 270 271 271 272 272 272 272 271 271 271 271 271 272 271 271 271 271 271 272 272 273 273 274 274 274 275 275 276 276 276 276 276 277 277 278 278 279 279 279 280 280 280 280 280 280 280 280 280
268 268 268 269 269 269 269 269 268 268 268 268 269 269 270 270 270 270 270 271 271 270 270 270 270 270 270 270 270 270 270 270 270 270 270 270 270 271 272 272 273 273 274 274 274 274 275 276 276 276 277 277 278 278 278 279 279 280 280 280 280 280 280
268 268 268 268 268 268 268 268 268 268 268 268 268 269 269 269 269 269 270 270 269 269 269 269 269 269 269 270 270 270 269 269 269 269 269 269 269 269 270 270 271 271 272 273 273 273 274 275 275 275 276 276 276 277 278 278 278 279 279 279 279 280 280
267 267 267 268 268 268 268 268 268 268 268 268 268 268 268 269 269 269 269 269 269 268 268 268 267 267 268 270 270 269 269 269 268 268 268 268 268 269 269 270 270 270 271 271 272 272 273 274 274 275 275 275 276 276 277 277 277 277 278 278 278 279 279
267 267 267 267 267 267 268 267 267 267 267 267 267 267 268 268 268 268 268 268 268 268 268 267 267 267 268 269 269 268 268 268 267 267 267 267 267 268 270 270 270 270 270 270 271 271 272 272 273 274 274 275 275 275 276 276 276 276 276 276 277 277 278
267 267 267 267 267 267 267 267 267 267 267 267 267 267 267 267 267 267 267 267 267 268 268 267 267 267 267 267 267 267 267 266 266 266 266 266 267 268 268 268 268 269 269 270 271 271 271 271 271 272 272 273 273 273 274 274 274 274 274 274 275 276 276
267 267 266 266 266 266 267 267 266 266 266 267 267 267 266 266 266 266 266 266 267 267 267 267 267 267 266 266 266 266 265 265 265 265 266 266 266 266 265 266 267 268 268 268 269 269 270 270 270 270 270 271 271 271 271 272 272 273 273 274 274 275 275
266 266 266 266 266 266 266 267 266 266 266 266 266 266 266 266 266 266 266 266 266 266 266 266 266 265 265 265 265 264 264 264 264 265 266 266 264 264 264 265 266 266 266 266 267 267 268 268 268 269 269 269 269 269 269 270 271 272 273 273 274 274 274
266 266 266 266 265 265 264 265 266 266 266 266 266 266 265 265 265 265 265 265 265 265 265 264 264 264 264 264 264 263 263 263 263 264 264 263 263 263 264 264 264 264 264 265 265 265 265 266 266 267 267 267 267 268 268 269 270 271 272 273 273 273 273
266 265 265 265 265 264 264 264 265 265 265 265 265 265 264 263 264 264 264 264 264 263 263 263 263 264 263 263 263 262 262 262 263 263 262 262 263 263 263 263 263 263 263 263 263 263 264 264 264 265 265 266 266 267 267 268 269 269 270 271 272 273 273
265 265 265 265 264 264 264 264 264 264 265 264 264 264 263 263 263 264 264 263 262 263 263 263 263 263 262 262 262 262 262 262 262 262 262 262 262 262 262 262 262 262 262 262 261 262 262 262 262 263 263 264 264 265 266 267 267 268 268 269 270 271 272
265 264 264 264 264 264 264 264 264 264 264 263 263 263 263 263 263 263 263 262 262 262 262 262 262 262 262 262 262 262 263 263 263 262 262 262 262 261 261 261 261 261 261 260 260 260 260 260 260 261 261 262 262 263 264 264 265 266 267 267 268 269 270
264 264 264 263 263 263 263 263 263 263 263 262 263 263 263 263 263 262 262 262 262 262 262 262 262 262 262 263 263 263 263 263 263 262 262 262 261 261 261 261 261 260 260 259 259 259 258 258 258 259 259 260 260 261 261 262 262 264 264 265 266 267 268
264 264 263 263 263 263 263 263 262 262 262 262 262 262 262 262 263 262 262 262 262 262 262 262 262 263 263 262 262 262 262 262 262 262 262 262 261 261 261 260 260 259 259 258 258 258 258 258 257 258 258 258 258 259 259 260 260 261 262 263 263 264 266
264 263 263 263 263 263 263 263 262 261 261 261 261 261 261 262 263 262 261 262 262 262 262 262 262 262 262 262 262 262 262 262 261 261 261 261 261 260 260 260 260 259 259 258 258 258 258 257 257 257 257 257 257 257 258 258 258 259 259 260 261 262 263
263 262 262 262 262 262 263 263 262 261 261 260 260 260 260 261 262 262 261 261 262 261 261 262 262 262 262 262 262 262 261 261 261 261 261 260 260 260 260 259 259 259 258 258 257 257 257 257 256 256 256 256 256 256 257 257 257 257 258 258 259 260 261
261 261 262 262 262 262 263 263 261 261 260 260 260 260 260 260 261 261 261 261 261 261 261 262 261 261 261 261 261 261 261 261 261 261 261 260 260 259 259 259 258 258 257 257 256 256 256 255 255 255 255 255 255 255 255 256 256 256 256 256 257 257 259
262 261 262 262 262 262 263 263 261 260 259 259 260 261 260 260 260 261 261 261 261 261 261 261 261 261 261 261 261 261 261 261 261 260 260 260 259 259 259 258 258 257 256 256 255 255 255 254 254 253 253 254 254 254 254 254 255 255 255 255 255 255 256
262 262 261 261 261 262 263 262 261 260 260 260 261 261 261 260 261 261 261 261 261 261 261 261 261 261 261 261 261 261 260 260 260 260 260 260 259 259 258 258 257 257 256 255 255 254 254 253 253 252 252 252 252 252 253 253 253 253 253 254 254 254 255
263 263 262 262 261 262 262 262 261 261 260 260 261 261 261 261 261 261 261 261 261 261 261 261 261 261 261 260 260 260 260 260 260 259 259 259 259 258 258 257 257 256 256 255 255 254 253 253 252 252 251 251 251 251 251 252 252 252 252 252 252 253 253
263 263 263 262 262 262 262 262 261 261 261 261 261 261 261 261 261 261 261 261 261 261 261 261 261 261 260 260 260 260 260 260 259 259 259 258 258 258 257 257 257 256 256 255 255 254 253 252 252 251 251 251 251 251 251 251 251 251 251 251 251 252 252
263 263 262 262 262 262 262 261 261 261 261 261 261 261 261 262 262 261 261 261 261 261 261 261 261 261 261 260 260 260 260 259 259 259 258 258 258 258 257 257 256 256 256 255 254 254 253 252 252 251 250 250 250 250 250 250 250 250 250 250 251 251 252
263 262 262 262 262 261 261 261 261 261 261 261 261 262 262 262 262 261 261 261 261 261 261 261 261 261 261 261 260 260 260 259 259 259 258 258 257 257 257 256 256 256 255 254 254 253 253 252 251 251 250 250 250 250 250 250 250 250 250 250 250 251 251

ECMWFFLT1_850_thetae_150.txt.gz
Theta_e
276 275 275 275 275 275 275 275 276 276 277 277 278 278 278 279 279 280 282 283 284 285 285 285 286 286 286 287 287 288 288 288 288 288 288 287 287 288 288 288 288 288 289 289 289 289 289 289 288 288 288 289 289 290 290 290 290 290 291 291 291 291 291
276 275 275 275 274 275 275 275 275 275 275 276 276 277 277 278 278 279 280 281 282 283 284 284 285 285 286 286 286 287 287 288 288 287 287 287 287 287 287 287 287 287 287 288 288 288 288 288 288 288 288 288 289 289 289 289 289 289 290 290 290 290 290
276 275 275 274 274 274 274 274 275 275 275 274 275 275 276 277 277 277 278 279 280 281 282 283 283 284 285 285 285 286 286 287 287 287 287 287 286 286 286 286 286 286 286 287 287 287 287 287 287 287 288 288 288 288 288 288 288 288 288 289 289 289 289
276 275 274 274 274 274 274 274 274 274 274 274 273 274 275 276 276 276 277 277 278 279 280 281 282 282 283 284 284 285 285 286 286 287 287 287 286 286 286 286 286 286 286 286 286 286 286 286 287 287 287 287 287 287 287 287 287 288 288 288 288 288 288
276 275 274 274 274 274 273 273 273 274 274 273 273 273 273 274 275 275 275 276 276 277 278 279 280 281 282 282 283 284 284 285 285 286 286 286 286 286 286 286 286 286 286 286 286 286 286 286 286 286 286 286 286 286 286 286 287 287 287 287 287 287 287
275 275 274 273 273 273 273 273 273 273 273 273 272 272 272 273 274 274 274 275 275 276 277 278 279 279 280 281 282 282 283 283 284 284 285 285 285 286 286 286 286 286 286 286 286 286 286 286 286 286 286 286 286 286 286 286 286 286 286 286 286 286 286
275 274 274 273 273 272 272 272 272 273 272 271 271 271 271 272 272 273 273 274 275 276 276 277 278 278 279 280 280 281 281 282 282 283 283 284 284 284 285 285 285 285 285 285 285 285 285 285 285 285 285 285 285 285 285 285 285 285 286 285 285 285 285
274 274 273 273 272 272 272 272 272 272 271 271 270 270 271 271 272 272 273 274 274 275 276 276 277 277 277 278 278 279 280 280 281 281 282 282 283 283 283 284 284 284 284 284 284 284 284 284 283 283 283 283 283 284 284 283 283 284 284 284 284 285 285
274 273 273 272 272 272 272 272 272 271 270 270 269 270 270 272 272 272 273 273 273 274 275 275 275 276 276 277 277 278 278 279 279 279 280 280 281 281 281 282 282 282 283 283 283 283 282 282 282 281 281 282 282 282 282 282 282 282 282 282 283 283 284
273 273 272 272 271 271 271 271 271 270 269 269 269 270 271 272 272 272 273 273 273 273 273 274 274 275 275 276 276 277 277 277 277 278 278 279 279 280 280 280 281 281 281 281 281 281 281 281 280 280 280 280 281 281 281 281 281 282 282 281 281 282 283
272 272 271 271 271 271 271 271 271 269 268 269 269 270 271 272 272 272 272 273 273 273 273 273 273 274 274 274 275 275 275 275 276 276 277 277 278 278 278 278 279 279 280 280 280 279 279 279 278 278 278 279 279 280 280 280 280 281 281 281 280 281 281
272 271 271 270 270 270 270 270 270 269 268 269 270 271 271 271 271 271 272 272 272 272 272 273 273 273 273 273 273 273 274 274 275 275 275 275 276 276 276 277 277 278 278 278 278 278 278 277 277 277 277 277 278 278 279 280 280 280 280 280 280 280 280
271 270 270 270 270 270 270 269 269 268 268 268 269 270 271 271 271 270 271 271 271 271 272 272 272 272 272 272 272 272 272 273 273 273 274 274 274 274 274 275 275 276 276 276 277 277 276 276 276 276 275 276 276 276 277 278 278 279 279 279 279 279 280
270 270 269 269 269 269 269 268 268 267 267 268 269 270 270 270 270 270 270 270 270 270 270 270 271 271 271 271 270 270 270 270 271 271 271 272 272 272 273 273 274 274 274 275 275 275 275 275 275 274 274 274 275 275 276 276 277 277 278 278 278 279 279
269 269 269 269 269 268 268 268 267 267 267 267 269 269 270 269 269 269 269 269 269 268 268 269 269 269 269 269 269 269 269 268 269 269 270 270 270 271 271 272 272 272 272 273 273 273 273 273 273 273 273 273 273 274 274 274 275 275 276 276 277 278 278
269 268 268 268 268 267 267 267 267 267 267 267 268 269 269 268 268 268 268 268 268 267 267 268 268 268 268 269 268 268 268 267 267 268 269 269 270 270 270 270 270 271 271 271 271 271 272 272 272 272 271 271 272 273 273 273 273 273 274 274 275 276 276
268 268 267 267 267 267 267 266 266 266 266 267 268 268 268 268 268 268 267 267 267 267 267 267 268 268 268 268 268 267 267 266 267 267 268 269 269 270 270 270 269 269 269 269 269 269 270 270 270 270 270 270 270 271 271 271 271 271 272 272 273 274 274
267 267 267 266 266 266 266 266 266 266 266 266 267 268 268 267 267 267 267 267 267 267 267 267 267 268 267 267 267 266 266 266 267 268 268 269 269 269 269 269 269 269 269 269 268 268 269 269 269 269 269 269 269 269 269 270 269 269 270 270 270 271 271
267 266 266 266 266 265 266 266 266 266 266 266 267 267 267 267 267 266 266 266 266 266 267 267 267 267 267 266 266 265 265 265 266 268 268 268 268 268 268 269 269 269 269 268 268 268 268 268 268 268 268 268 269 269 269 269 268 269 269 269 269 269 270
266 266 266 265 265 265 265 266 265 265 266 266 266 266 266 266 266 266 266 266 266 266 266 266 266 266 266 266 265 265 264 264 265 267 267 266 267 267 267 267 268 268 268 268 268 268 268 268 268 268 268 268 268 268 268 268 268 267 267 268 268 268 268
265 265 265 265 265 265 265 265 265 265 265 266 266 266 266 266 265 265 265 265 266 266 266 266 266 266 266 265 264 264 263 263 264 265 265 265 266 266 266 266 266 266 267 267 267 267 267 267 267 267 267 267 267 267 267 266 266 266 266 266 266 266 267
265 265 265 265 265 265 265 265 265 265 265 265 265 265 265 265 265 265 265 265 265 265 265 265 265 264 264 263 262 262 262 263 264 264 264 264 264 264 265 265 265 265 266 266 266 266 266 266 266 266 266 266 266 266 266 266 265 265 265 265 264 264 265
265 265 265 265 265 265 264 264 265 265 265 265 265 264 263 264 264 264 264 264 264 264 264 264 263 263 262 262 262 262 263 263 263 263 263 264 264 264 264 264 265 265 265 265 265 265 265 265 266 266 266 266 266 266 266 266 265 265 265 264 264 264 263
264 264 264 264 264 264 264 264 264 264 264 264 264 263 262 263 264 264 264 264 264 263 263 263 263 262 262 262 263 263 263 263 263 263 263 264 263 264 264 264 264 264 264 264 265 265 265 265 265 265 265 265 265 265 265 265 265 265 265 264 264 263 263
264 264 264 264 264 264 264 264 264 264 264 264 264 263 263 263 264 264 264 263 263 263 262 262 263 263 263 263 263 263 263 263 263 263 263 264 264 264 264 264 264 264 264 264 264 265 265 265 265 265 265 265 264 264 264 264 264 264 264 264 264 263 263
264 264 264 264 263 263 263 263 263 263 263 263 263 263 263 263 263 263 263 263 262 262 262 262 262 263 263 263 263 263 263 263 263 263 263 264 263 263 264 264 264 264 264 264 264 264 264 264 264 264 264 264 264 264 264 264 264 264 264 264 264 264 263
263 263 263 263 263 263 263 263 263 263 262 262 262 262 262 262 262 262 262 262 262 262 262 262 262 262 262 262 263 263 263 263 263 263 263 263 263 263 264 264 264 264 264 264 264 264 263 263 263 263 263 263 263 263 264 264 264 264 264 264 264 264 264
263 263 263 262 262 262 262 262 262 262 262 261 261 262 262 262 262 261 261 262 262 262 262 262 262 262 262 262 263 263 263 263 263 263 263 263 263 263 263 263 263 263 263 263 263 263 263 263 263 263 263 263 263 263 263 263 263 263 263 263 263 263 263
262 262 262 262 262 262 262 262 262 261 261 261 261 261 262 262 261 261 261 261 261 262 262 262 262 262 262 262 262 262 262 262 262 262 263 263 263 263 263 263 263 263 263 263 263 263 263 263 263 263 263 262 262 262 262 262 262 262 262 262 261 261 261
262 262 262 262 262 262 262 262 262 261 261 261 260 260 261 262 262 261 261 261 261 261 262 262 262 262 262 262 262 262 262 262 262 262 263 263 263 263 263 263 263 263 263 263 263 262 262 262 262 262 262 262 262 262 261 261 261 261 260 260 260 260 259
262 261 261 261 262 262 262 262 261 261 261 261 260 260 260 261 262 261 261 261 261 261 261 262 262 262 262 261 262 262 262 262 262 262 262 262 262 262 262 262 262 262 262 262 262 262 262 262 262 261 261 261 261 261 260 260 260 260 260 259 259 258 258
261 261 260 261 261 261 262 261 261 260 260 260 260 260 260 260 261 261 261 261 261 261 261 262 262 262 262 262 262 262 262 262 262 262 262 262 262 262 262 262 262 262 261 261 261 261 261 261 261 261 260 260 260 260 260 260 259 259 259 259 258 258 257
262 261 261 260 260 260 261 261 260 260 260 260 260 261 260 260 261 261 261 261 261 262 262 262 262 262 262 262 262 262 262 262 262 262 262 261 261 261 261 261 261 261 260 260 260 260 260 260 260 260 260 260 259 259 259 259 259 259 258 258 257 257 256
262 262 261 261 260 260 261 261 260 260 260 260 260 260 261 261 261 261 261 262 262 262 262 262 262 262 262 262 262 262 262 262 262 261 261 261 261 261 261 260 260 260 260 260 260 260 260 260 260 260 259 259 259 259 258 258 258 258 257 257 256 256 255
262 262 262 261 261 261 261 261 261 260 261 260 260 261 261 261 261 261 261 262 262 262 262 262 262 262 262 262 262 262 262 262 261 261 261 261 261 261 260 260 260 260 260 260 260 260 260 259 259 259 259 259 259 258 258 258 258 257 257 256 256 256 255
262 262 262 262 262 261 261 261 261 261 261 261 261 261 261 262 261 261 262 262 262 262 262 262 262 262 262 262 262 262 261 261 261 261 261 261 261 261 261 261 261 260 260 260 260 260 260 260 259 259 259 259 259 258 258 258 258 257 257 256 256 256 255